SV8FES Weather Reports


time (UTC)temp
F
wind
direction
speed
knots
gust
knots
rain 1hr
in
rain 24hr
in
rain mn
in
humidity
%
barometer
mb
20260906093203 86 245 4.3 10.4 0.00 0.00 0.00 50 1016.3
20260906093102 86 297 4.3 10.4 0.00 0.00 0.00 51 1016.3
20260906093002 87 286 4.3 10.4 0.00 0.00 0.00 50 1016.4
20260906092903 87 324 3.5 10.4 0.00 0.00 0.00 50 1016.3
20260906092803 87 297 3.5 10.4 0.00 0.00 0.00 50 1016.3
20260906092705 87 339 2.6 10.4 0.00 0.00 0.00 50 1016.3
20260906092605 87 333 2.6 9.6 0.00 0.00 0.00 50 1016.3
20260906092502 87 268 2.6 7.8 0.00 0.00 0.00 50 1016.3
20260906092404 87 126 2.6 7.8 0.00 0.00 0.00 51 1016.3
20260906092306 86 76 2.6 7.8 0.00 0.00 0.00 51 1016.3
20260906092203 86 297 3.5 8.7 0.00 0.00 0.00 50 1016.3
20260906092103 86 270 3.5 8.7 0.00 0.00 0.00 50 1016.3
20260906092002 87 275 3.5 8.7 0.00 0.00 0.00 50 1016.4
20260906091903 87 318 3.5 8.7 0.00 0.00 0.00 50 1016.4
20260906091804 87 337 3.5 9.6 0.00 0.00 0.00 50 1016.3
20260906091705 86 338 3.5 9.6 0.00 0.00 0.00 50 1016.4
20260906091604 86 278 3.5 9.6 0.00 0.00 0.00 51 1016.4
20260906091505 86 319 3.5 9.6 0.00 0.00 0.00 50 1016.4
20260906091401 86 45 3.5 9.6 0.00 0.00 0.00 50 1016.4
20260906091302 86 351 3.5 9.6 0.00 0.00 0.00 49 1016.4
20260906091203 86 329 3.5 9.6 0.00 0.00 0.00 49 1016.4
20260906091102 86 34 4.3 11.3 0.00 0.00 0.00 49 1016.4
20260906091002 86 29 4.3 13.0 0.00 0.00 0.00 48 1016.4
20260906090859 86 228 4.3 13.0 0.00 0.00 0.00 49 1016.4
20260906090756 86 131 5.2 13.0 0.00 0.00 0.00 48 1016.4
20260906090659 86 131 5.2 13.0 0.00 0.00 0.00 48 1016.4
20260906090557 86 346 5.2 13.0 0.00 0.00 0.00 48 1016.3
20260906090456 86 314 5.2 13.0 0.00 0.00 0.00 48 1016.4
20260906090353 86 292 6.1 13.0 0.00 0.00 0.00 48 1016.4
20260906090250 85 332 6.1 13.0 0.00 0.00 0.00 48 1016.3
20260906090151 85 271 5.2 13.0 0.00 0.00 0.00 47 1016.4
20260906090050 85 286 5.2 13.0 0.00 0.00 0.00 48 1016.4
20260906085951 85 305 5.2 13.0 0.00 0.00 0.00 48 1016.5
20260906085848 85 317 5.2 13.0 0.00 0.00 0.00 49 1016.4
20260906085748 85 311 5.2 13.0 0.00 0.00 0.00 48 1016.4
20260906085648 85 284 5.2 13.0 0.00 0.00 0.00 48 1016.4
20260906085547 85 280 4.3 13.0 0.00 0.00 0.00 49 1016.4
20260906085445 85 303 4.3 13.0 0.00 0.00 0.00 49 1016.4
20260906085344 85 278 4.3 9.6 0.00 0.00 0.00 50 1016.3
20260906085238 85 356 5.2 12.2 0.00 0.00 0.00 50 1016.3
20260906085139 85 343 5.2 12.2 0.00 0.00 0.00 50 1016.3
20260906085041 85 299 5.2 12.2 0.00 0.00 0.00 51 1016.3
20260906084939 85 320 4.3 12.2 0.00 0.00 0.00 51 1016.4
20260906084838 85 5 4.3 12.2 0.00 0.00 0.00 50 1016.3
20260906084734 85 331 4.3 12.2 0.00 0.00 0.00 51 1016.3
20260906084634 85 217 4.3 12.2 0.00 0.00 0.00 51 1016.3
20260906084533 85 320 5.2 12.2 0.00 0.00 0.00 50 1016.3
20260906084432 85 314 4.3 12.2 0.00 0.00 0.00 51 1016.3
20260906084335 85 272 4.3 12.2 0.00 0.00 0.00 50 1016.3
20260906084232 85 276 4.3 10.4 0.00 0.00 0.00 51 1016.4
20260906084131 85 272 4.3 10.4 0.00 0.00 0.00 52 1016.3
20260906084034 85 278 4.3 10.4 0.00 0.00 0.00 52 1016.4
20260906083932 85 170 4.3 10.4 0.00 0.00 0.00 52 1016.4
20260906083836 85 245 4.3 10.4 0.00 0.00 0.00 53 1016.4
20260906083732 85 284 4.3 9.6 0.00 0.00 0.00 53 1016.3
20260906083632 85 20 3.5 9.6 0.00 0.00 0.00 52 1016.4
20260906083532 85 272 3.5 9.6 0.00 0.00 0.00 53 1016.3
20260906083432 85 340 3.5 9.6 0.00 0.00 0.00 53 1016.4
20260906083334 84 307 4.3 9.6 0.00 0.00 0.00 52 1016.4
20260906083231 84 280 4.3 9.6 0.00 0.00 0.00 52 1016.4
20260906083131 84 283 4.3 10.4 0.00 0.00 0.00 53 1016.4
20260906083034 84 278 4.3 10.4 0.00 0.00 0.00 53 1016.3
20260906082932 84 344 4.3 10.4 0.00 0.00 0.00 53 1016.5
20260906082833 84 330 5.2 11.3 0.00 0.00 0.00 53 1016.4
20260906082732 84 218 5.2 11.3 0.00 0.00 0.00 53 1016.4
20260906082627 84 239 6.1 11.3 0.00 0.00 0.00 54 1016.4
20260906082526 83 30 6.1 12.2 0.00 0.00 0.00 54 1016.4
20260906082427 83 311 6.1 12.2 0.00 0.00 0.00 55 1016.4
20260906082330 83 303 6.1 12.2 0.00 0.00 0.00 54 1016.4
20260906082227 83 270 6.1 12.2 0.00 0.00 0.00 53 1016.5
20260906082121 83 293 6.1 12.2 0.00 0.00 0.00 55 1016.5
20260906082021 83 301 7.0 12.2 0.00 0.00 0.00 55 1016.5
20260906081921 83 347 7.0 12.2 0.00 0.00 0.00 54 1016.4
20260906081828 83 292 7.0 12.2 0.00 0.00 0.00 55 1016.4
20260906081721 83 330 7.0 12.2 0.00 0.00 0.00 55 1016.5
20260906081617 83 318 7.0 12.2 0.00 0.00 0.00 54 1016.5
20260906081513 83 311 7.0 13.9 0.00 0.00 0.00 55 1016.4
20260906081416 83 330 7.0 13.9 0.00 0.00 0.00 54 1016.6
20260906081316 83 303 7.0 13.9 0.00 0.00 0.00 55 1016.4
20260906081215 83 310 7.0 13.9 0.00 0.00 0.00 55 1016.5
20260906081108 83 326 7.0 13.9 0.00 0.00 0.00 55 1016.4
20260906080910 83 344 6.1 13.9 0.00 0.00 0.00 55 1016.5
20260906080807 83 305 6.1 13.9 0.00 0.00 0.00 55 1016.5
20260906080708 83 341 6.1 13.9 0.00 0.00 0.00 54 1016.5
20260906080604 83 334 6.1 13.9 0.00 0.00 0.00 54 1016.5
20260906080503 83 323 6.1 13.0 0.00 0.00 0.00 54 1016.5
20260906080406 83 16 6.1 13.0 0.00 0.00 0.00 54 1016.5
20260906080304 83 35 6.1 13.0 0.00 0.00 0.00 54 1016.5
20260906080204 83 316 6.1 13.0 0.00 0.00 0.00 54 1016.4
20260906080104 83 80 6.1 11.3 0.00 0.00 0.00 54 1016.5
20260906080005 83 307 6.1 11.3 0.00 0.00 0.00 54 1016.5
20260906075904 83 266 6.1 11.3 0.00 0.00 0.00 54 1016.5
20260906075805 83 321 6.1 11.3 0.00 0.00 0.00 54 1016.5
20260906075704 83 341 5.2 11.3 0.00 0.00 0.00 54 1016.4
20260906075604 83 299 5.2 10.4 0.00 0.00 0.00 54 1016.5
20260906075504 83 313 5.2 10.4 0.00 0.00 0.00 54 1016.5
20260906075404 83 323 5.2 10.4 0.00 0.00 0.00 55 1016.5
20260906075306 83 299 5.2 10.4 0.00 0.00 0.00 55 1016.5
20260906075203 83 299 5.2 10.4 0.00 0.00 0.00 55 1016.5
20260906075103 83 27 5.2 10.4 0.00 0.00 0.00 54 1016.6
20260906075004 83 328 5.2 10.4 0.00 0.00 0.00 54 1016.5
20260906074903 83 318 5.2 11.3 0.00 0.00 0.00 54 1016.5
20260906074804 83 314 5.2 11.3 0.00 0.00 0.00 53 1016.5
20260906074703 83 265 5.2 11.3 0.00 0.00 0.00 53 1016.6
20260906074603 83 317 5.2 11.3 0.00 0.00 0.00 52 1016.5
20260906074502 83 290 5.2 11.3 0.00 0.00 0.00 52 1016.5
20260906074357 83 284 5.2 11.3 0.00 0.00 0.00 52 1016.4
20260906074255 83 342 4.3 11.3 0.00 0.00 0.00 53 1016.4
20260906074157 83 264 4.3 11.3 0.00 0.00 0.00 53 1016.4
20260906074056 83 326 4.3 11.3 0.00 0.00 0.00 53 1016.4
20260906073957 83 344 4.3 11.3 0.00 0.00 0.00 52 1016.5
20260906073849 84 299 4.3 9.6 0.00 0.00 0.00 52 1016.4
20260906073750 84 347 3.5 9.6 0.00 0.00 0.00 52 1016.5
20260906073654 84 49 2.6 9.6 0.00 0.00 0.00 52 1016.4
20260906073550 84 0 2.6 9.6 0.00 0.00 0.00 52 1016.4
20260906073450 84 305 2.6 9.6 0.00 0.00 0.00 52 1016.4
20260906073344 84 306 2.6 9.6 0.00 0.00 0.00 52 1016.3
20260906073246 84 0 2.6 9.6 0.00 0.00 0.00 52 1016.4
20260906073144 84 266 2.6 9.6 0.00 0.00 0.00 52 1016.3
20260906073044 84 293 2.6 9.6 0.00 0.00 0.00 53 1016.3
20260906072945 83 264 2.6 7.8 0.00 0.00 0.00 53 1016.3
20260906072841 83 297 2.6 7.8 0.00 0.00 0.00 53 1016.3
20260906072738 83 76 2.6 7.8 0.00 0.00 0.00 53 1016.2
20260906072640 83 10 3.5 8.7 0.00 0.00 0.00 53 1016.2
20260906072538 83 330 3.5 8.7 0.00 0.00 0.00 53 1016.2
20260906072439 83 345 3.5 8.7 0.00 0.00 0.00 53 1016.3
20260906072335 83 31 3.5 8.7 0.00 0.00 0.00 53 1016.3
20260906072237 83 356 3.5 8.7 0.00 0.00 0.00 53 1016.3
20260906072137 83 291 3.5 8.7 0.00 0.00 0.00 54 1016.3
20260906072034 83 338 3.5 8.7 0.00 0.00 0.00 54 1016.3
20260906071936 83 10 2.6 8.7 0.00 0.00 0.00 54 1016.2
20260906071836 83 303 2.6 8.7 0.00 0.00 0.00 54 1016.2
20260906071733 83 300 2.6 8.7 0.00 0.00 0.00 54 1016.2
20260906071634 83 266 2.6 7.0 0.00 0.00 0.00 55 1016.1
20260906071534 83 332 2.6 7.0 0.00 0.00 0.00 55 1016.3
20260906071434 83 301 2.6 7.0 0.00 0.00 0.00 55 1016.2
20260906071333 83 270 2.6 7.0 0.00 0.00 0.00 56 1016.2
20260906071232 83 309 2.6 7.0 0.00 0.00 0.00 57 1016.2
20260906071132 83 301 3.5 7.8 0.00 0.00 0.00 57 1016.2
20260906071031 82 324 3.5 7.8 0.00 0.00 0.00 57 1016.2
20260906070932 82 17 3.5 8.7 0.00 0.00 0.00 57 1016.2
20260906070832 82 10 3.5 8.7 0.00 0.00 0.00 57 1016.3
20260906070733 82 310 3.5 8.7 0.00 0.00 0.00 57 1016.3
20260906070632 82 355 3.5 8.7 0.00 0.00 0.00 57 1016.3
20260906070531 82 321 4.3 8.7 0.00 0.00 0.00 57 1016.2
20260906070431 82 318 4.3 8.7 0.00 0.00 0.00 57 1016.3
20260906070332 82 251 4.3 9.6 0.00 0.00 0.00 57 1016.3
20260906070232 82 312 4.3 9.6 0.00 0.00 0.00 57 1016.2
20260906070128 82 297 4.3 9.6 0.00 0.00 0.00 57 1016.2
20260906070028 82 0 4.3 9.6 0.00 0.00 0.00 58 1016.2
20260906065927 82 322 4.3 9.6 0.00 0.00 0.00 58 1016.3
20260906065825 82 321 4.3 9.6 0.00 0.00 0.00 58 1016.3
20260906065727 81 330 4.3 9.6 0.00 0.00 0.00 58 1016.2
20260906065621 81 330 4.3 9.6 0.00 0.00 0.00 58 1016.2
20260906065521 82 307 4.3 9.6 0.00 0.00 0.00 58 1016.2
20260906065421 82 320 4.3 9.6 0.00 0.00 0.00 58 1016.2
20260906065320 81 325 4.3 7.8 0.00 0.00 0.00 58 1016.3
20260906065221 81 356 3.5 7.8 0.00 0.00 0.00 58 1016.2
20260906065114 81 0 3.5 7.8 0.00 0.00 0.00 59 1016.2
20260906065015 81 307 3.5 7.8 0.00 0.00 0.00 58 1016.2
20260906064915 81 342 3.5 7.8 0.00 0.00 0.00 58 1016.2
20260906064815 81 317 3.5 7.8 0.00 0.00 0.00 59 1016.2
20260906064714 81 309 3.5 7.8 0.00 0.00 0.00 59 1016.1
20260906064608 81 322 2.6 7.8 0.00 0.00 0.00 59 1016.2
20260906064507 81 284 2.6 7.8 0.00 0.00 0.00 60 1016.1
20260906064409 81 315 2.6 7.8 0.00 0.00 0.00 60 1016.1
20260906064309 81 278 2.6 7.8 0.00 0.00 0.00 60 1016.1
20260906064208 81 305 2.6 7.8 0.00 0.00 0.00 60 1016.0
20260906064110 81 310 2.6 7.8 0.00 0.00 0.00 60 1016.0
20260906064009 81 281 2.6 7.8 0.00 0.00 0.00 60 1016.1
20260906063909 81 298 2.6 7.8 0.00 0.00 0.00 60 1016.1
20260906063807 81 304 2.6 7.8 0.00 0.00 0.00 61 1016.1
20260906063708 81 304 2.6 7.8 0.00 0.00 0.00 61 1016.1
20260906063609 81 304 2.6 7.8 0.00 0.00 0.00 61 1016.1
20260906063508 81 251 2.6 6.1 0.00 0.00 0.00 61 1016.0
20260906063410 81 307 2.6 6.1 0.00 0.00 0.00 61 1016.1
20260906063309 81 322 2.6 6.1 0.00 0.00 0.00 61 1016.0
20260906063209 81 320 2.6 6.1 0.00 0.00 0.00 61 1016.0
20260906063108 81 281 2.6 6.1 0.00 0.00 0.00 61 1016.0
20260906063006 81 264 2.6 6.1 0.00 0.00 0.00 60 1016.0
20260906062903 81 278 2.6 6.1 0.00 0.00 0.00 60 1015.9
20260906062805 81 318 1.7 6.1 0.00 0.00 0.00 60 1016.0
20260906062703 81 277 1.7 6.1 0.00 0.00 0.00 61 1015.9
20260906062604 81 297 2.6 6.1 0.00 0.00 0.00 60 1015.9
20260906062505 81 296 2.6 6.1 0.00 0.00 0.00 60 1015.9
20260906062404 81 297 2.6 6.1 0.00 0.00 0.00 60 1015.9
20260906062306 81 301 2.6 6.1 0.00 0.00 0.00 60 1015.9
20260906062205 81 309 2.6 6.1 0.00 0.00 0.00 60 1015.9
20260906062104 81 291 2.6 4.3 0.00 0.00 0.00 60 1015.8
20260906062003 81 279 1.7 4.3 0.00 0.00 0.00 60 1015.8
20260906061904 81 306 1.7 4.3 0.00 0.00 0.00 60 1015.8
20260906061803 81 329 1.7 4.3 0.00 0.00 0.00 60 1015.8
20260906061703 81 51 1.7 4.3 0.00 0.00 0.00 60 1015.8
20260906061602 81 66 1.7 4.3 0.00 0.00 0.00 60 1015.7
20260906061503 81 289 1.7 4.3 0.00 0.00 0.00 60 1015.8
20260906061405 80 331 1.7 4.3 0.00 0.00 0.00 60 1015.8
20260906061304 80 330 1.7 5.2 0.00 0.00 0.00 60 1015.8
20260906061203 80 10 1.7 5.2 0.00 0.00 0.00 60 1015.7
20260906061102 80 10 1.7 7.8 0.00 0.00 0.00 60 1015.8
20260906061004 80 0 2.6 7.8 0.00 0.00 0.00 60 1015.8
20260906060903 80 0 2.6 7.8 0.00 0.00 0.00 60 1015.7
20260906060803 80 0 2.6 7.8 0.00 0.00 0.00 60 1015.8
20260906060703 80 0 2.6 7.8 0.00 0.00 0.00 60 1015.8
20260906060603 80 14 2.6 7.8 0.00 0.00 0.00 60 1015.8
20260906060503 80 14 2.6 7.8 0.00 0.00 0.00 61 1015.8
20260906060405 80 20 2.6 7.8 0.00 0.00 0.00 61 1015.8
20260906060303 80 25 2.6 7.8 0.00 0.00 0.00 61 1015.8
20260906060203 80 27 1.7 7.8 0.00 0.00 0.00 61 1015.8
20260906060103 80 330 1.7 7.0 0.00 0.00 0.00 61 1015.8
20260906060003 79 304 1.7 5.2 0.00 0.00 0.00 61 1015.8
20260906055904 79 304 1.7 5.2 0.00 0.00 0.00 61 1015.8
20260906055803 79 304 1.7 5.2 0.00 0.00 0.00 61 1015.8
20260906055702 79 318 1.7 5.2 0.00 0.00 0.00 62 1015.7
20260906055603 79 324 1.7 5.2 0.00 0.00 0.00 62 1015.9
20260906055503 79 332 1.7 5.2 0.00 0.00 0.00 62 1015.8
20260906055403 79 82 1.7 5.2 0.00 0.00 0.00 62 1015.8
20260906055306 78 82 1.7 5.2 0.00 0.00 0.00 62 1015.7
20260906055203 78 78 1.7 5.2 0.00 0.00 0.00 62 1015.7
20260906055104 78 46 1.7 7.0 0.00 0.00 0.00 62 1015.7
20260906055002 78 312 1.7 7.0 0.00 0.00 0.00 63 1015.7
20260906054903 78 311 1.7 7.0 0.00 0.00 0.00 63 1015.7
20260906054803 78 301 1.7 7.0 0.00 0.00 0.00 63 1015.7
20260906054704 78 323 1.7 7.0 0.00 0.00 0.00 63 1015.7
20260906054604 78 322 2.6 7.8 0.00 0.00 0.00 63 1015.8
20260906054503 78 322 2.6 7.8 0.00 0.00 0.00 63 1015.7
20260906054403 78 334 2.6 7.8 0.00 0.00 0.00 63 1015.7
20260906054303 78 25 2.6 7.8 0.00 0.00 0.00 63 1015.7
20260906054203 78 328 1.7 7.8 0.00 0.00 0.00 64 1015.7
20260906054103 77 299 1.7 7.8 0.00 0.00 0.00 64 1015.7
20260906054002 77 42 1.7 7.8 0.00 0.00 0.00 63 1015.7
20260906053903 77 91 1.7 7.8 0.00 0.00 0.00 63 1015.7
20260906053804 77 50 1.7 7.8 0.00 0.00 0.00 63 1015.7
20260906053704 77 50 1.7 7.8 0.00 0.00 0.00 64 1015.7
20260906053603 77 54 0.9 7.0 0.00 0.00 0.00 64 1015.7
20260906053502 77 60 0.9 3.5 0.00 0.00 0.00 63 1015.7
20260906053404 77 62 0.9 3.5 0.00 0.00 0.00 63 1015.6
20260906053303 77 61 0.9 3.5 0.00 0.00 0.00 63 1015.6
20260906053204 77 22 0.9 3.5 0.00 0.00 0.00 63 1015.6
20260906053103 77 48 0.0 2.6 0.00 0.00 0.00 63 1015.7
20260906053003 77 106 0.0 1.7 0.00 0.00 0.00 63 1015.7
20260906052905 77 106 0.0 1.7 0.00 0.00 0.00 63 1015.6
20260906052803 77 106 0.0 1.7 0.00 0.00 0.00 63 1015.6
20260906052704 77 148 0.0 1.7 0.00 0.00 0.00 63 1015.7
20260906052603 77 160 0.0 0.9 0.00 0.00 0.00 63 1015.6
20260906052505 77 160 0.0 0.9 0.00 0.00 0.00 63 1015.7
20260906052403 77 160 0.0 0.9 0.00 0.00 0.00 63 1015.6
20260906052306 77 160 0.9 2.6 0.00 0.00 0.00 63 1015.7
20260906052204 77 160 0.9 3.5 0.00 0.00 0.00 63 1015.6
20260906052103 77 160 0.9 3.5 0.00 0.00 0.00 63 1015.6
20260906052002 77 160 0.9 3.5 0.00 0.00 0.00 63 1015.6
20260906051904 77 160 0.9 3.5 0.00 0.00 0.00 63 1015.5
20260906051803 77 160 0.9 3.5 0.00 0.00 0.00 63 1015.6
20260906051708 77 160 0.9 3.5 0.00 0.00 0.00 63 1015.5
20260906051602 77 160 0.9 3.5 0.00 0.00 0.00 63 1015.6
20260906051503 77 160 1.7 3.5 0.00 0.00 0.00 63 1015.6
20260906051403 77 160 1.7 3.5 0.00 0.00 0.00 63 1015.5
20260906051302 77 160 1.7 3.5 0.00 0.00 0.00 63 1015.5
20260906051208 77 257 1.7 3.5 0.00 0.00 0.00 63 1015.5
20260906051103 77 257 1.7 3.5 0.00 0.00 0.00 63 1015.5
20260906051002 77 255 1.7 4.3 0.00 0.00 0.00 63 1015.4
20260906050903 77 249 0.9 4.3 0.00 0.00 0.00 63 1015.5
20260906050803 77 109 0.9 4.3 0.00 0.00 0.00 63 1015.5
20260906050705 77 109 0.9 4.3 0.00 0.00 0.00 63 1015.5
20260906050603 77 110 0.9 4.3 0.00 0.00 0.00 63 1015.5
20260906050503 77 111 0.9 4.3 0.00 0.00 0.00 63 1015.5
20260906050402 77 70 0.9 4.3 0.00 0.00 0.00 63 1015.5
20260906050304 77 66 0.9 4.3 0.00 0.00 0.00 63 1015.5
20260906050204 77 89 0.9 4.3 0.00 0.00 0.00 63 1015.5
20260906050004 77 83 0.9 3.5 0.00 0.00 0.00 63 1015.4
20260906045903 77 82 0.9 2.6 0.00 0.00 0.00 63 1015.5
20260906045803 77 82 0.9 2.6 0.00 0.00 0.00 63 1015.5
20260906045702 77 83 0.9 2.6 0.00 0.00 0.00 63 1015.5
20260906045603 77 83 0.9 2.6 0.00 0.00 0.00 63 1015.5
20260906045502 77 83 1.7 2.6 0.00 0.00 0.00 63 1015.5
20260906045402 77 83 1.7 2.6 0.00 0.00 0.00 63 1015.5
20260906045305 77 83 1.7 2.6 0.00 0.00 0.00 62 1015.5
20260906045203 77 84 1.7 2.6 0.00 0.00 0.00 62 1015.4
20260906045103 77 82 1.7 2.6 0.00 0.00 0.00 62 1015.5
20260906045028 77 21 1.7 3.5 0.00 0.00 0.00 62 1015.5
20260906045009 77 10 1.7 3.5 0.00 0.00 0.00 62 1015.5
20260906044804 77 10 1.7 4.3 0.00 0.00 0.00 62 1015.5
20260906044704 77 10 1.7 4.3 0.00 0.00 0.00 62 1015.4
20260906044604 77 10 1.7 4.3 0.00 0.00 0.00 62 1015.4
20260906044503 77 22 1.7 4.3 0.00 0.00 0.00 62 1015.5
20260906044404 77 87 2.6 4.3 0.00 0.00 0.00 62 1015.4
20260906044304 77 87 2.6 4.3 0.00 0.00 0.00 62 1015.4
20260906044203 76 88 2.6 5.2 0.00 0.00 0.00 63 1015.4
20260906044104 77 73 2.6 5.2 0.00 0.00 0.00 62 1015.4
20260906044003 76 74 2.6 5.2 0.00 0.00 0.00 63 1015.3
20260906043906 76 74 2.6 5.2 0.00 0.00 0.00 62 1015.3
20260906043803 76 69 2.6 5.2 0.00 0.00 0.00 62 1015.3
20260906043704 76 69 2.6 5.2 0.00 0.00 0.00 62 1015.3
20260906043603 76 75 2.6 5.2 0.00 0.00 0.00 62 1015.3
20260906043502 76 77 3.5 6.1 0.00 0.00 0.00 62 1015.3
20260906043402 76 65 3.5 6.1 0.00 0.00 0.00 62 1015.3
20260906043303 76 75 3.5 6.1 0.00 0.00 0.00 62 1015.3
20260906043202 76 70 3.5 6.1 0.00 0.00 0.00 62 1015.3
20260906043103 76 73 3.5 6.1 0.00 0.00 0.00 62 1015.3
20260906043005 76 81 3.5 6.1 0.00 0.00 0.00 62 1015.2
20260906042902 76 79 3.5 7.8 0.00 0.00 0.00 62 1015.2
20260906042804 76 68 4.3 7.8 0.00 0.00 0.00 62 1015.2
20260906042703 76 67 4.3 7.8 0.00 0.00 0.00 62 1015.2
20260906042603 76 73 4.3 7.8 0.00 0.00 0.00 62 1015.1
20260906042505 76 85 4.3 7.8 0.00 0.00 0.00 62 1015.1
20260906042402 76 79 4.3 7.8 0.00 0.00 0.00 62 1015.1
20260906042306 76 41 4.3 7.8 0.00 0.00 0.00 62 1015.1
20260906042205 76 58 4.3 7.8 0.00 0.00 0.00 62 1015.0
20260906042103 76 72 4.3 7.8 0.00 0.00 0.00 62 1015.0
20260906042003 76 72 4.3 7.8 0.00 0.00 0.00 62 1015.0
20260906041904 76 83 4.3 7.8 0.00 0.00 0.00 62 1015.0
20260906041803 76 83 3.5 7.8 0.00 0.00 0.00 62 1015.0
20260906041704 76 77 3.5 7.8 0.00 0.00 0.00 62 1015.0
20260906041602 76 79 3.5 7.8 0.00 0.00 0.00 62 1015.0
20260906041504 76 73 3.5 7.8 0.00 0.00 0.00 62 1014.9
20260906041403 76 76 3.5 7.0 0.00 0.00 0.00 62 1014.9
20260906041305 76 74 3.5 7.0 0.00 0.00 0.00 62 1014.9
20260906041203 76 71 3.5 7.0 0.00 0.00 0.00 62 1014.9
20260906041102 76 83 3.5 7.0 0.00 0.00 0.00 62 1014.9
20260906041002 76 68 3.5 7.0 0.00 0.00 0.00 62 1014.9
20260906040901 76 71 3.5 7.0 0.00 0.00 0.00 62 1014.8
20260906040755 76 79 3.5 7.0 0.00 0.00 0.00 62 1014.8
20260906040655 76 61 3.5 7.0 0.00 0.00 0.00 62 1014.9
20260906040555 76 93 3.5 7.8 0.00 0.00 0.00 62 1014.8
20260906040456 76 72 3.5 7.8 0.00 0.00 0.00 62 1014.8
20260906040355 76 97 3.5 7.8 0.00 0.00 0.00 62 1014.9
20260906040248 76 84 4.3 7.8 0.00 0.00 0.00 62 1014.8
20260906040147 76 77 4.3 8.7 0.00 0.00 0.00 62 1014.8
20260906040049 76 76 4.3 8.7 0.00 0.00 0.00 62 1014.7
20260906035950 76 79 4.3 8.7 0.00 0.00 0.00 63 1014.8
20260906035849 76 53 4.3 8.7 0.00 0.00 0.00 63 1014.8
20260906035744 76 83 4.3 8.7 0.00 0.00 0.00 63 1014.7
20260906035644 76 72 4.3 8.7 0.00 0.00 0.00 63 1014.7
20260906035544 76 81 4.3 8.7 0.00 0.00 0.00 63 1014.7
20260906035444 76 78 4.3 8.7 0.00 0.00 0.00 63 1014.7
20260906035342 76 84 3.5 8.7 0.00 0.00 0.00 63 1014.7
20260906035239 76 64 3.5 8.7 0.00 0.00 0.00 63 1014.7
20260906035136 76 81 3.5 6.1 0.00 0.00 0.00 63 1014.6
20260906035033 76 79 3.5 6.1 0.00 0.00 0.00 63 1014.6
20260906034933 76 69 2.6 6.1 0.00 0.00 0.00 63 1014.7
20260906034833 76 87 2.6 6.1 0.00 0.00 0.00 63 1014.8
20260906034736 76 56 2.6 6.1 0.00 0.00 0.00 63 1014.7
20260906034635 76 84 2.6 6.1 0.00 0.00 0.00 64 1014.7
20260906034535 76 89 2.6 6.1 0.00 0.00 0.00 64 1014.7
20260906034435 76 78 2.6 4.3 0.00 0.00 0.00 64 1014.7
20260906034335 76 79 2.6 4.3 0.00 0.00 0.00 64 1014.8
20260906034232 76 72 1.7 4.3 0.00 0.00 0.00 64 1014.7
20260906034131 76 57 1.7 4.3 0.00 0.00 0.00 64 1014.7
20260906034031 76 72 1.7 4.3 0.00 0.00 0.00 64 1014.7
20260906033933 76 72 1.7 4.3 0.00 0.00 0.00 64 1014.8
20260906033831 76 73 1.7 4.3 0.00 0.00 0.00 64 1014.8
20260906033733 76 70 1.7 4.3 0.00 0.00 0.00 64 1014.8
20260906033632 76 45 1.7 4.3 0.00 0.00 0.00 64 1014.8
20260906033531 76 45 1.7 4.3 0.00 0.00 0.00 63 1014.8
20260906033432 76 70 1.7 4.3 0.00 0.00 0.00 63 1014.8
20260906033332 76 74 1.7 3.5 0.00 0.00 0.00 64 1014.7
20260906033229 76 64 1.7 3.5 0.00 0.00 0.00 63 1014.8
20260906033131 76 63 1.7 4.3 0.00 0.00 0.00 64 1014.8
20260906033029 76 63 1.7 5.2 0.00 0.00 0.00 63 1014.8
20260906032929 76 63 1.7 5.2 0.00 0.00 0.00 63 1014.7
20260906032831 76 60 1.7 5.2 0.00 0.00 0.00 63 1014.8
20260906032732 76 59 1.7 5.2 0.00 0.00 0.00 64 1014.7
20260906032630 76 58 1.7 5.2 0.00 0.00 0.00 64 1014.8
20260906032529 76 72 1.7 5.2 0.00 0.00 0.00 64 1014.7
20260906032431 76 79 1.7 5.2 0.00 0.00 0.00 64 1014.8
20260906032330 76 66 1.7 5.2 0.00 0.00 0.00 64 1014.8
20260906032229 76 65 2.6 5.2 0.00 0.00 0.00 63 1014.8
20260906032126 76 33 2.6 5.2 0.00 0.00 0.00 63 1014.7
20260906032028 76 32 2.6 5.2 0.00 0.00 0.00 63 1014.8
20260906031925 76 32 2.6 5.2 0.00 0.00 0.00 63 1014.8
20260906031827 76 33 2.6 5.2 0.00 0.00 0.00 63 1014.8
20260906031725 76 31 2.6 5.2 0.00 0.00 0.00 63 1014.7
20260906031628 76 72 2.6 5.2 0.00 0.00 0.00 63 1014.8
20260906031527 76 74 2.6 5.2 0.00 0.00 0.00 63 1014.8
20260906031427 76 75 2.6 5.2 0.00 0.00 0.00 63 1014.8
20260906031326 76 72 2.6 5.2 0.00 0.00 0.00 63 1014.7
20260906031227 76 85 2.6 5.2 0.00 0.00 0.00 63 1014.7
20260906031121 76 76 2.6 5.2 0.00 0.00 0.00 63 1014.7
20260906031021 75 76 2.6 4.3 0.00 0.00 0.00 63 1014.7
20260906030921 75 76 2.6 4.3 0.00 0.00 0.00 63 1014.8
20260906030821 75 77 2.6 4.3 0.00 0.00 0.00 63 1014.8
20260906030725 75 76 2.6 4.3 0.00 0.00 0.00 63 1014.8
20260906030621 75 68 2.6 4.3 0.00 0.00 0.00 63 1014.7
20260906030522 75 72 2.6 4.3 0.00 0.00 0.00 63 1014.7
20260906030423 75 74 2.6 4.3 0.00 0.00 0.00 63 1014.7
20260906030321 75 64 2.6 4.3 0.00 0.00 0.00 63 1014.7
20260906030222 75 70 2.6 4.3 0.00 0.00 0.00 63 1014.8
20260906030123 75 76 2.6 4.3 0.00 0.00 0.00 62 1014.8
20260906030021 75 76 2.6 4.3 0.00 0.00 0.00 62 1014.8
20260906025921 75 71 1.7 4.3 0.00 0.00 0.00 62 1014.7
20260906025823 75 34 1.7 4.3 0.00 0.00 0.00 62 1014.7
20260906025721 75 24 1.7 4.3 0.00 0.00 0.00 62 1014.8
20260906025623 75 71 1.7 4.3 0.00 0.00 0.00 62 1014.7
20260906025522 75 76 2.6 4.3 0.00 0.00 0.00 62 1014.7
20260906025421 75 74 2.6 4.3 0.00 0.00 0.00 61 1014.8
20260906025323 75 68 2.6 3.5 0.00 0.00 0.00 61 1014.7
20260906025217 75 62 1.7 3.5 0.00 0.00 0.00 61 1014.8
20260906025117 76 62 1.7 3.5 0.00 0.00 0.00 60 1014.8
20260906025017 76 62 1.7 3.5 0.00 0.00 0.00 60 1014.8
20260906024917 76 62 1.7 3.5 0.00 0.00 0.00 60 1014.8
20260906024820 76 62 1.7 3.5 0.00 0.00 0.00 60 1014.9
20260906024719 76 61 1.7 3.5 0.00 0.00 0.00 60 1014.8
20260906024618 76 41 1.7 3.5 0.00 0.00 0.00 60 1014.8
20260906024517 76 22 1.7 4.3 0.00 0.00 0.00 60 1014.9
20260906024417 76 22 1.7 4.3 0.00 0.00 0.00 60 1014.9
20260906024317 76 22 1.7 4.3 0.00 0.00 0.00 60 1014.9
20260906024218 76 286 1.7 4.3 0.00 0.00 0.00 59 1014.8
20260906024117 76 286 1.7 4.3 0.00 0.00 0.00 59 1014.9
20260906024020 76 286 1.7 4.3 0.00 0.00 0.00 59 1014.9
20260906023917 77 286 2.6 4.3 0.00 0.00 0.00 59 1014.9
20260906023818 77 294 2.6 7.0 0.00 0.00 0.00 59 1014.8
20260906023722 77 50 2.6 7.0 0.00 0.00 0.00 59 1014.8
20260906023618 77 71 2.6 7.0 0.00 0.00 0.00 59 1014.7
20260906023517 77 85 2.6 7.8 0.00 0.00 0.00 59 1014.7
20260906023419 77 69 2.6 7.8 0.00 0.00 0.00 59 1014.7
20260906023312 77 68 2.6 7.8 0.00 0.00 0.00 59 1014.7
20260906023219 77 76 2.6 7.8 0.00 0.00 0.00 59 1014.7
20260906023114 77 99 2.6 7.8 0.00 0.00 0.00 59 1014.7
20260906023016 77 74 2.6 7.8 0.00 0.00 0.00 59 1014.7
20260906022914 77 56 2.6 7.8 0.00 0.00 0.00 59 1014.7
20260906022815 77 70 1.7 7.8 0.00 0.00 0.00 59 1014.6
20260906022714 77 41 1.7 7.8 0.00 0.00 0.00 59 1014.7
20260906022613 77 74 1.7 7.0 0.00 0.00 0.00 59 1014.7
20260906022513 77 76 0.9 4.3 0.00 0.00 0.00 58 1014.7
20260906022414 77 72 0.9 4.3 0.00 0.00 0.00 58 1014.6
20260906022314 77 72 0.9 4.3 0.00 0.00 0.00 58 1014.6
20260906022214 77 72 0.9 4.3 0.00 0.00 0.00 58 1014.7
20260906022115 77 72 0.9 4.3 0.00 0.00 0.00 58 1014.8
20260906022014 77 18 0.9 2.6 0.00 0.00 0.00 58 1014.8
20260906021915 77 18 0.9 2.6 0.00 0.00 0.00 58 1014.7
20260906021815 77 18 0.9 2.6 0.00 0.00 0.00 58 1014.7
20260906021714 77 18 0.9 2.6 0.00 0.00 0.00 58 1014.7
20260906021613 77 14 0.9 2.6 0.00 0.00 0.00 58 1014.7
20260906021519 77 14 0.9 7.0 0.00 0.00 0.00 58 1014.7
20260906021410 77 14 1.7 7.0 0.00 0.00 0.00 58 1014.6
20260906021309 77 14 1.7 7.0 0.00 0.00 0.00 58 1014.6
20260906021210 77 14 1.7 7.0 0.00 0.00 0.00 58 1014.7
20260906021111 77 14 1.7 7.0 0.00 0.00 0.00 58 1014.7
20260906021014 77 14 1.7 7.0 0.00 0.00 0.00 58 1014.6
20260906020910 77 14 1.7 7.0 0.00 0.00 0.00 58 1014.6
20260906020809 77 14 1.7 7.0 0.00 0.00 0.00 58 1014.6
20260906020709 77 14 1.7 7.0 0.00 0.00 0.00 58 1014.6
20260906020609 77 10 2.6 7.0 0.00 0.00 0.00 58 1014.6
20260906020511 77 10 2.6 7.0 0.00 0.00 0.00 58 1014.6
20260906020410 77 72 1.7 7.0 0.00 0.00 0.00 58 1014.6
20260906020313 77 67 1.7 7.0 0.00 0.00 0.00 58 1014.6
20260906020209 77 95 1.7 7.0 0.00 0.00 0.00 58 1014.6
20260906020109 77 72 1.7 7.0 0.00 0.00 0.00 58 1014.6
20260906020012 77 66 1.7 7.0 0.00 0.00 0.00 58 1014.6
20260906015909 77 66 1.7 7.0 0.00 0.00 0.00 58 1014.6
20260906015810 77 49 1.7 7.0 0.00 0.00 0.00 58 1014.5
20260906015709 77 65 1.7 7.0 0.00 0.00 0.00 57 1014.5
20260906015611 77 71 1.7 7.0 0.00 0.00 0.00 57 1014.5
20260906015506 77 76 1.7 4.3 0.00 0.00 0.00 57 1014.5
20260906015407 77 72 1.7 4.3 0.00 0.00 0.00 57 1014.6
20260906015306 77 77 1.7 6.1 0.00 0.00 0.00 57 1014.5
20260906015205 77 74 1.7 6.1 0.00 0.00 0.00 57 1014.5
20260906015105 77 74 1.7 6.1 0.00 0.00 0.00 57 1014.6
20260906015005 77 70 2.6 6.1 0.00 0.00 0.00 57 1014.6
20260906014905 77 70 2.6 6.1 0.00 0.00 0.00 57 1014.6
20260906014806 77 69 2.6 6.1 0.00 0.00 0.00 57 1014.6
20260906014706 77 69 2.6 7.8 0.00 0.00 0.00 57 1014.6
20260906014610 77 68 2.6 7.8 0.00 0.00 0.00 57 1014.6
20260906014506 77 84 2.6 7.8 0.00 0.00 0.00 57 1014.5
20260906014405 77 59 2.6 7.8 0.00 0.00 0.00 57 1014.5
20260906014305 77 64 2.6 7.8 0.00 0.00 0.00 57 1014.5
20260906014205 77 84 2.6 7.8 0.00 0.00 0.00 57 1014.6
20260906014106 77 87 2.6 7.8 0.00 0.00 0.00 57 1014.5
20260906014005 77 69 2.6 7.8 0.00 0.00 0.00 57 1014.5
20260906013906 77 70 2.6 7.8 0.00 0.00 0.00 57 1014.5
20260906013805 77 68 1.7 7.8 0.00 0.00 0.00 57 1014.5
20260906013707 77 90 1.7 6.1 0.00 0.00 0.00 57 1014.5
20260906013604 77 89 1.7 6.1 0.00 0.00 0.00 57 1014.5
20260906013505 77 45 1.7 6.1 0.00 0.00 0.00 57 1014.5
20260906013404 77 95 1.7 6.1 0.00 0.00 0.00 57 1014.5
20260906013303 77 88 1.7 6.1 0.00 0.00 0.00 57 1014.5
20260906013204 77 70 2.6 6.1 0.00 0.00 0.00 57 1014.6
20260906013103 77 74 1.7 6.1 0.00 0.00 0.00 57 1014.5
20260906013005 77 79 2.6 6.1 0.00 0.00 0.00 57 1014.5
20260906012904 77 56 2.6 6.1 0.00 0.00 0.00 57 1014.5
20260906012803 77 81 2.6 7.0 0.00 0.00 0.00 57 1014.6
20260906012708 77 105 2.6 7.8 0.00 0.00 0.00 57 1014.5
20260906012603 77 49 2.6 7.8 0.00 0.00 0.00 57 1014.5
20260906012504 77 83 2.6 7.8 0.00 0.00 0.00 57 1014.6
20260906012402 77 83 2.6 7.8 0.00 0.00 0.00 57 1014.6
20260906012306 77 91 2.6 7.8 0.00 0.00 0.00 57 1014.5
20260906012203 77 76 2.6 7.8 0.00 0.00 0.00 57 1014.5
20260906012104 77 63 2.6 7.8 0.00 0.00 0.00 57 1014.6
20260906012003 77 89 2.6 7.8 0.00 0.00 0.00 57 1014.6
20260906011902 77 83 2.6 7.8 0.00 0.00 0.00 57 1014.6
20260906011803 77 63 2.6 7.8 0.00 0.00 0.00 57 1014.5
20260906011701 77 75 2.6 7.8 0.00 0.00 0.00 57 1014.5
20260906011602 77 82 2.6 7.8 0.00 0.00 0.00 57 1014.5
20260906011504 77 126 3.5 7.8 0.00 0.00 0.00 57 1014.4
20260906011401 77 125 3.5 7.8 0.00 0.00 0.00 57 1014.5
20260906011257 77 83 2.6 7.8 0.00 0.00 0.00 57 1014.5
20260906011157 77 69 2.6 7.0 0.00 0.00 0.00 57 1014.5
20260906011055 77 66 2.6 7.0 0.00 0.00 0.00 57 1014.5
20260906010951 77 72 2.6 7.0 0.00 0.00 0.00 57 1014.5
20260906010850 77 95 2.6 7.0 0.00 0.00 0.00 57 1014.5
20260906010750 77 83 2.6 7.0 0.00 0.00 0.00 57 1014.5
20260906010643 77 79 2.6 6.1 0.00 0.00 0.00 57 1014.5
20260906010543 77 86 2.6 6.1 0.00 0.00 0.00 57 1014.5
20260906010445 77 89 2.6 6.1 0.00 0.00 0.00 57 1014.5
20260906010343 77 90 2.6 6.1 0.00 0.00 0.00 57 1014.5
20260906010243 77 91 1.7 6.1 0.00 0.00 0.00 57 1014.5
20260906010135 77 81 1.7 6.1 0.00 0.00 0.00 57 1014.5
20260906010035 77 67 1.7 6.1 0.00 0.00 0.00 57 1014.5
20260906005938 77 74 1.7 6.1 0.00 0.00 0.00 57 1014.5
20260906005835 77 77 1.7 6.1 0.00 0.00 0.00 57 1014.5
20260906005734 77 60 1.7 6.1 0.00 0.00 0.00 57 1014.5
20260906005637 77 60 1.7 6.1 0.00 0.00 0.00 57 1014.5
20260906005533 77 68 1.7 6.1 0.00 0.00 0.00 57 1014.6
20260906005431 77 76 1.7 6.1 0.00 0.00 0.00 57 1014.5
20260906005333 77 69 1.7 6.1 0.00 0.00 0.00 57 1014.6
20260906005231 77 72 2.6 6.1 0.00 0.00 0.00 57 1014.6
20260906005133 77 85 2.6 6.1 0.00 0.00 0.00 57 1014.5
20260906005031 77 87 2.6 6.1 0.00 0.00 0.00 57 1014.5
20260906004934 77 74 2.6 7.0 0.00 0.00 0.00 57 1014.6
20260906004832 77 66 2.6 7.8 0.00 0.00 0.00 57 1014.6
20260906004731 77 66 2.6 7.8 0.00 0.00 0.00 56 1014.5
20260906004634 77 74 2.6 7.8 0.00 0.00 0.00 57 1014.5
20260906004532 77 70 2.6 7.8 0.00 0.00 0.00 57 1014.5
20260906004432 77 95 3.5 7.8 0.00 0.00 0.00 57 1014.5
20260906004331 77 93 3.5 7.8 0.00 0.00 0.00 57 1014.5
20260906004231 77 65 2.6 7.8 0.00 0.00 0.00 57 1014.5
20260906004132 77 69 2.6 7.8 0.00 0.00 0.00 57 1014.6
20260906004033 77 66 2.6 7.8 0.00 0.00 0.00 57 1014.5
20260906003930 77 68 2.6 7.8 0.00 0.00 0.00 57 1014.5
20260906003831 77 61 2.6 7.0 0.00 0.00 0.00 57 1014.5
20260906003731 77 54 2.6 7.0 0.00 0.00 0.00 57 1014.4
20260906003634 77 78 1.7 7.0 0.00 0.00 0.00 57 1014.5
20260906003530 77 79 1.7 7.0 0.00 0.00 0.00 57 1014.4
20260906003433 77 79 1.7 6.1 0.00 0.00 0.00 57 1014.4
20260906003331 77 70 0.9 6.1 0.00 0.00 0.00 57 1014.5
20260906003230 77 65 0.9 6.1 0.00 0.00 0.00 57 1014.4
20260906003130 77 82 0.9 6.1 0.00 0.00 0.00 57 1014.4
20260906003033 77 89 0.9 4.3 0.00 0.00 0.00 57 1014.5
20260906002933 77 67 0.9 3.5 0.00 0.00 0.00 57 1014.5
20260906002832 77 67 0.9 3.5 0.00 0.00 0.00 57 1014.5
20260906002732 77 66 0.9 3.5 0.00 0.00 0.00 57 1014.6
20260906002633 77 93 0.9 3.5 0.00 0.00 0.00 57 1014.6
20260906002531 77 93 0.9 3.5 0.00 0.00 0.00 57 1014.5
20260906002431 77 97 0.9 3.5 0.00 0.00 0.00 57 1014.6
20260906002332 77 97 0.9 3.5 0.00 0.00 0.00 57 1014.5
20260906002232 77 97 0.9 3.5 0.00 0.00 0.00 57 1014.6
20260906002132 77 139 0.9 5.2 0.00 0.00 0.00 57 1014.5
20260906002033 77 117 1.7 5.2 0.00 0.00 0.00 57 1014.5
20260906001932 77 103 1.7 7.0 0.00 0.00 0.00 57 1014.5
20260906001831 77 287 1.7 7.0 0.00 0.00 0.00 57 1014.5
20260906001731 77 287 1.7 7.0 0.00 0.00 0.00 57 1014.5
20260906001634 77 89 2.6 7.0 0.00 0.00 0.00 57 1014.5
20260906001530 77 86 2.6 7.0 0.00 0.00 0.00 57 1014.5
20260906001430 77 85 2.6 7.0 0.00 0.00 0.00 57 1014.6
20260906001331 77 97 2.6 7.0 0.00 0.00 0.00 57 1014.5
20260906001234 77 118 2.6 7.0 0.00 0.00 0.00 57 1014.6
20260906001133 77 87 2.6 7.0 0.00 0.00 0.00 57 1014.6
20260906001032 77 86 2.6 7.0 0.00 0.00 0.00 57 1014.6
20260906000931 77 71 2.6 7.0 0.00 0.00 0.00 57 1014.5
20260906000831 77 83 2.6 7.0 0.00 0.00 0.00 57 1014.5
20260906000732 77 76 1.7 7.0 0.00 0.00 0.00 57 1014.5
20260906000635 77 76 1.7 7.0 0.00 0.00 0.00 57 1014.6
20260906000531 77 22 1.7 6.1 0.00 0.00 0.00 57 1014.6
20260906000433 77 85 1.7 6.1 0.00 0.00 0.00 57 1014.6
20260906000333 77 81 1.7 6.1 0.00 0.00 0.00 57 1014.6
20260906000231 77 100 1.7 6.1 0.00 0.00 0.00 57 1014.7
20260906000131 77 70 1.7 6.1 0.00 0.00 0.00 57 1014.6
20260906000030 77 117 1.7 6.1 0.00 0.00 0.00 57 1014.7
20260905235932 77 77 1.7 6.1 0.00 0.00 0.00 57 1014.7
20260905235832 77 82 1.7 6.1 0.00 0.00 0.00 57 1014.7
20260905235731 77 81 1.7 3.5 0.00 0.00 0.00 57 1014.7
20260905235634 77 76 1.7 4.3 0.00 0.00 0.00 58 1014.8
20260905235530 77 76 1.7 4.3 0.00 0.00 0.00 58 1014.7
20260905235429 77 71 1.7 4.3 0.00 0.00 0.00 58 1014.7
20260905235329 77 68 1.7 4.3 0.00 0.00 0.00 58 1014.8
20260905235232 77 58 2.6 4.3 0.00 0.00 0.00 58 1014.7
20260905235130 77 54 2.6 4.3 0.00 0.00 0.00 58 1014.7
20260905235029 77 55 2.6 4.3 0.00 0.00 0.00 58 1014.8
20260905234930 77 81 1.7 4.3 0.00 0.00 0.00 58 1014.8
20260905234825 77 73 1.7 4.3 0.00 0.00 0.00 58 1014.7
20260905234726 77 71 1.7 4.3 0.00 0.00 0.00 58 1014.7
20260905234625 77 71 1.7 4.3 0.00 0.00 0.00 58 1014.8
20260905234526 77 61 1.7 4.3 0.00 0.00 0.00 58 1014.7
20260905234424 77 74 1.7 4.3 0.00 0.00 0.00 58 1014.7
20260905234321 77 79 1.7 4.3 0.00 0.00 0.00 58 1014.7
20260905234224 77 83 1.7 4.3 0.00 0.00 0.00 58 1014.8
20260905234122 77 77 1.7 4.3 0.00 0.00 0.00 58 1014.8
20260905234018 77 68 1.7 9.6 0.00 0.00 0.00 58 1014.8
20260905233918 77 52 2.6 9.6 0.00 0.00 0.00 58 1014.7
20260905233811 77 76 2.6 9.6 0.00 0.00 0.00 58 1014.8
20260905233712 77 76 2.6 9.6 0.00 0.00 0.00 58 1014.8
20260905233612 77 76 2.6 9.6 0.00 0.00 0.00 59 1014.7
20260905233510 77 77 2.6 9.6 0.00 0.00 0.00 59 1014.7
20260905233412 77 74 2.6 9.6 0.00 0.00 0.00 59 1014.6
20260905233305 77 77 2.6 9.6 0.00 0.00 0.00 59 1014.7
20260905233205 77 82 2.6 9.6 0.00 0.00 0.00 59 1014.7
20260905233104 77 79 2.6 9.6 0.00 0.00 0.00 59 1014.7
20260905233004 77 85 1.7 6.1 0.00 0.00 0.00 59 1014.6
20260905232904 77 90 1.7 5.2 0.00 0.00 0.00 59 1014.8
20260905232803 77 68 1.7 5.2 0.00 0.00 0.00 59 1014.8
20260905232704 77 64 1.7 5.2 0.00 0.00 0.00 59 1014.8
20260905232604 77 65 1.7 5.2 0.00 0.00 0.00 59 1014.8
20260905232503 77 81 1.7 5.2 0.00 0.00 0.00 59 1014.8
20260905232402 77 82 1.7 5.2 0.00 0.00 0.00 59 1014.8
20260905232305 77 74 1.7 5.2 0.00 0.00 0.00 59 1014.8
20260905232202 77 73 0.9 5.2 0.00 0.00 0.00 59 1014.9
20260905232103 77 76 0.9 5.2 0.00 0.00 0.00 59 1014.8
20260905232003 77 87 0.9 5.2 0.00 0.00 0.00 59 1014.8
20260905231902 77 91 0.9 3.5 0.00 0.00 0.00 59 1014.8
20260905231806 77 68 0.9 3.5 0.00 0.00 0.00 59 1014.9
20260905231702 77 61 0.9 3.5 0.00 0.00 0.00 59 1014.8
20260905231603 77 77 0.9 3.5 0.00 0.00 0.00 59 1014.8
20260905231503 77 77 0.9 3.5 0.00 0.00 0.00 60 1014.8
20260905231403 77 77 0.9 3.5 0.00 0.00 0.00 60 1014.8
20260905231303 77 77 0.9 3.5 0.00 0.00 0.00 60 1014.8
20260905231204 77 77 0.9 3.5 0.00 0.00 0.00 60 1014.8
20260905231103 77 76 0.9 3.5 0.00 0.00 0.00 60 1014.8
20260905231003 77 76 0.9 3.5 0.00 0.00 0.00 60 1014.8
20260905230903 77 75 0.9 3.5 0.00 0.00 0.00 60 1014.7
20260905230804 77 93 0.9 3.5 0.00 0.00 0.00 60 1014.7
20260905230704 77 87 0.9 3.5 0.00 0.00 0.00 60 1014.8
20260905230603 77 88 0.9 3.5 0.00 0.00 0.00 60 1014.8
20260905230503 77 98 0.9 3.5 0.00 0.00 0.00 60 1014.8
20260905230403 77 97 0.9 3.5 0.00 0.00 0.00 60 1014.7
20260905230303 77 81 0.9 3.5 0.00 0.00 0.00 60 1014.9
20260905230203 77 81 0.9 4.3 0.00 0.00 0.00 60 1014.8
20260905230003 77 81 0.9 4.3 0.00 0.00 0.00 60 1014.8
20260905225902 77 74 0.9 4.3 0.00 0.00 0.00 60 1014.9
20260905225803 77 74 0.9 4.3 0.00 0.00 0.00 60 1014.9
20260905225706 77 74 0.9 4.3 0.00 0.00 0.00 60 1014.9
20260905225603 77 74 0.9 4.3 0.00 0.00 0.00 60 1014.9
20260905225503 77 74 1.7 4.3 0.00 0.00 0.00 60 1014.9
20260905225404 77 74 1.7 4.3 0.00 0.00 0.00 60 1014.9
20260905225305 77 76 1.7 4.3 0.00 0.00 0.00 60 1014.7
20260905225203 77 72 1.7 4.3 0.00 0.00 0.00 60 1014.8
20260905225102 77 71 1.7 4.3 0.00 0.00 0.00 60 1014.8
20260905225003 77 71 1.7 4.3 0.00 0.00 0.00 60 1014.8
20260905224904 77 64 1.7 3.5 0.00 0.00 0.00 60 1014.8
20260905224807 77 74 0.9 3.5 0.00 0.00 0.00 60 1014.9
20260905224702 77 76 0.9 3.5 0.00 0.00 0.00 60 1014.8
20260905224605 77 62 0.9 3.5 0.00 0.00 0.00 60 1014.8
20260905224502 77 62 0.9 3.5 0.00 0.00 0.00 60 1014.8
20260905224403 77 80 0.9 3.5 0.00 0.00 0.00 60 1014.9
20260905224303 77 72 0.9 3.5 0.00 0.00 0.00 60 1014.9
20260905224204 77 71 0.9 3.5 0.00 0.00 0.00 60 1014.9
20260905224102 77 71 0.9 3.5 0.00 0.00 0.00 60 1014.8
20260905224005 77 71 0.9 3.5 0.00 0.00 0.00 60 1014.9
20260905223904 77 75 0.9 3.5 0.00 0.00 0.00 60 1014.9
20260905223809 77 135 0.9 5.2 0.00 0.00 0.00 60 1014.9
20260905223703 77 135 1.7 5.2 0.00 0.00 0.00 60 1015.0
20260905223604 77 135 1.7 5.2 0.00 0.00 0.00 60 1015.0
20260905223503 77 134 1.7 5.2 0.00 0.00 0.00 60 1015.1
20260905223404 77 134 1.7 5.2 0.00 0.00 0.00 60 1014.9
20260905223306 77 79 1.7 5.2 0.00 0.00 0.00 60 1014.9
20260905223204 77 92 1.7 5.2 0.00 0.00 0.00 60 1015.0
20260905223102 77 92 1.7 5.2 0.00 0.00 0.00 61 1014.9
20260905223006 77 79 1.7 5.2 0.00 0.00 0.00 61 1014.9
20260905222905 77 97 1.7 5.2 0.00 0.00 0.00 61 1014.9
20260905222806 77 102 1.7 6.1 0.00 0.00 0.00 61 1015.0
20260905222703 77 101 1.7 6.1 0.00 0.00 0.00 61 1014.9
20260905222603 77 68 1.7 6.1 0.00 0.00 0.00 61 1015.0
20260905222502 77 66 1.7 6.1 0.00 0.00 0.00 61 1014.9
20260905222404 77 43 1.7 6.1 0.00 0.00 0.00 61 1015.0
20260905222306 77 43 1.7 6.1 0.00 0.00 0.00 61 1014.9
20260905222204 77 43 1.7 6.1 0.00 0.00 0.00 61 1014.9
20260905222103 77 43 1.7 6.1 0.00 0.00 0.00 61 1014.9
20260905222003 77 71 1.7 6.1 0.00 0.00 0.00 61 1014.9
20260905221903 77 78 1.7 6.1 0.00 0.00 0.00 61 1015.0
20260905221803 77 82 1.7 5.2 0.00 0.00 0.00 61 1015.0
20260905221702 77 77 1.7 5.2 0.00 0.00 0.00 61 1015.0
20260905221603 77 99 1.7 5.2 0.00 0.00 0.00 61 1014.9
20260905221502 77 80 1.7 5.2 0.00 0.00 0.00 61 1014.9
20260905221403 77 80 1.7 5.2 0.00 0.00 0.00 61 1014.9
20260905221307 77 82 1.7 5.2 0.00 0.00 0.00 62 1015.0
20260905221204 77 78 1.7 5.2 0.00 0.00 0.00 62 1015.0
20260905221106 77 86 1.7 5.2 0.00 0.00 0.00 62 1014.9
20260905221002 77 84 1.7 5.2 0.00 0.00 0.00 62 1015.1
20260905220902 77 81 1.7 3.5 0.00 0.00 0.00 62 1015.1
20260905220803 77 309 0.9 3.5 0.00 0.00 0.00 62 1015.1
20260905220702 77 83 0.9 3.5 0.00 0.00 0.00 62 1015.1
20260905220604 77 97 0.9 3.5 0.00 0.00 0.00 62 1015.0
20260905220504 77 101 0.9 3.5 0.00 0.00 0.00 62 1015.1
20260905220404 77 72 0.9 3.5 0.00 0.00 0.00 62 1015.1
20260905220303 77 72 0.9 3.5 0.00 0.00 0.00 62 1015.1
20260905220204 77 110 0.9 3.5 0.00 0.00 0.00 62 1015.1
20260905220003 77 37 0.9 2.6 0.00 0.00 0.00 62 1015.1
20260905215904 77 37 0.9 2.6 0.00 0.00 0.00 62 1015.1
20260905215803 77 37 0.9 2.6 0.00 0.00 0.00 62 1015.1
20260905215704 78 37 0.9 2.6 0.00 0.00 0.00 62 1015.1
20260905215602 78 22 0.9 3.5 0.00 0.00 0.00 62 1015.1
20260905215505 78 0 1.7 3.5 0.00 0.00 0.00 62 1015.1
20260905215404 78 0 1.7 7.0 0.00 0.00 0.00 62 1015.1
20260905215306 78 5 1.7 7.0 0.00 0.00 0.00 61 1015.1
20260905215203 78 46 1.7 8.7 0.00 0.00 0.00 62 1015.1
20260905215103 78 318 1.7 8.7 0.00 0.00 0.00 62 1015.1
20260905215004 78 312 2.6 8.7 0.00 0.00 0.00 62 1015.1
20260905214902 78 312 2.6 8.7 0.00 0.00 0.00 62 1015.1
20260905214803 78 312 2.6 8.7 0.00 0.00 0.00 62 1015.2
20260905214704 78 311 2.6 8.7 0.00 0.00 0.00 62 1015.2
20260905214605 78 303 2.6 8.7 0.00 0.00 0.00 62 1015.2
20260905214504 78 289 2.6 8.7 0.00 0.00 0.00 62 1015.3
20260905214404 78 306 1.7 8.7 0.00 0.00 0.00 62 1015.3
20260905214304 78 81 1.7 8.7 0.00 0.00 0.00 62 1015.3
20260905214204 78 311 1.7 6.1 0.00 0.00 0.00 61 1015.2
20260905214102 78 54 1.7 4.3 0.00 0.00 0.00 61 1015.2
20260905214003 78 81 1.7 3.5 0.00 0.00 0.00 61 1015.2
20260905213902 78 73 1.7 4.3 0.00 0.00 0.00 61 1015.2
20260905213804 78 73 1.7 4.3 0.00 0.00 0.00 61 1015.2
20260905213704 78 112 1.7 5.2 0.00 0.00 0.00 61 1015.2
20260905213605 78 140 1.7 5.2 0.00 0.00 0.00 61 1015.2
20260905213502 78 311 1.7 5.2 0.00 0.00 0.00 61 1015.3
20260905213404 78 216 1.7 5.2 0.00 0.00 0.00 61 1015.2
20260905213302 78 218 1.7 5.2 0.00 0.00 0.00 61 1015.3
20260905213204 78 292 1.7 5.2 0.00 0.00 0.00 61 1015.3
20260905213103 78 292 2.6 5.2 0.00 0.00 0.00 61 1015.3
20260905213004 78 289 2.6 5.2 0.00 0.00 0.00 61 1015.3
20260905212901 78 321 2.6 5.2 0.00 0.00 0.00 61 1015.3
20260905212801 78 324 1.7 5.2 0.00 0.00 0.00 61 1015.3
20260905212702 78 318 1.7 5.2 0.00 0.00 0.00 61 1015.4
20260905212601 78 287 1.7 5.2 0.00 0.00 0.00 61 1015.4
20260905212457 78 218 1.7 5.2 0.00 0.00 0.00 61 1015.3
20260905212352 78 336 2.6 8.7 0.00 0.00 0.00 61 1015.3
20260905212251 78 294 2.6 8.7 0.00 0.00 0.00 61 1015.2
20260905212152 78 351 2.6 8.7 0.00 0.00 0.00 61 1015.2
20260905212051 78 348 2.6 8.7 0.00 0.00 0.00 61 1015.2
20260905211951 78 311 2.6 8.7 0.00 0.00 0.00 62 1015.2
20260905211852 78 259 2.6 8.7 0.00 0.00 0.00 62 1015.2
20260905211749 78 34 2.6 8.7 0.00 0.00 0.00 61 1015.2
20260905211649 78 34 3.5 9.6 0.00 0.00 0.00 61 1015.2
20260905211548 78 34 3.5 9.6 0.00 0.00 0.00 61 1015.3
20260905211446 78 22 2.6 9.6 0.00 0.00 0.00 61 1015.4
20260905211339 78 5 2.6 9.6 0.00 0.00 0.00 62 1015.3
20260905211238 78 28 2.6 9.6 0.00 0.00 0.00 62 1015.4
20260905211139 78 276 2.6 9.6 0.00 0.00 0.00 62 1015.3
20260905211039 78 276 2.6 9.6 0.00 0.00 0.00 62 1015.3
20260905210939 78 356 2.6 9.6 0.00 0.00 0.00 62 1015.3
20260905210835 78 297 2.6 9.6 0.00 0.00 0.00 62 1015.3
20260905210735 78 309 2.6 9.6 0.00 0.00 0.00 62 1015.2
20260905210636 78 234 2.6 5.2 0.00 0.00 0.00 62 1015.1
20260905210536 77 255 2.6 5.2 0.00 0.00 0.00 62 1015.2
20260905210435 77 79 2.6 5.2 0.00 0.00 0.00 62 1015.2
20260905210334 77 169 2.6 5.2 0.00 0.00 0.00 62 1015.1
20260905210235 78 184 2.6 5.2 0.00 0.00 0.00 62 1015.1
20260905210138 77 246 2.6 8.7 0.00 0.00 0.00 62 1015.1
20260905210034 77 227 2.6 8.7 0.00 0.00 0.00 62 1015.1
20260905205933 78 220 1.7 8.7 0.00 0.00 0.00 62 1015.1
20260905205833 77 185 1.7 8.7 0.00 0.00 0.00 62 1015.1
20260905205733 77 205 1.7 8.7 0.00 0.00 0.00 62 1015.1
20260905205635 78 212 1.7 8.7 0.00 0.00 0.00 62 1015.1
20260905205533 78 355 1.7 8.7 0.00 0.00 0.00 62 1015.1
20260905205433 77 77 1.7 8.7 0.00 0.00 0.00 62 1015.1
20260905205336 77 73 1.7 8.7 0.00 0.00 0.00 62 1015.1
20260905205233 77 309 1.7 8.7 0.00 0.00 0.00 62 1015.2
20260905205133 77 280 1.7 7.0 0.00 0.00 0.00 62 1015.2
20260905205034 77 146 1.7 7.0 0.00 0.00 0.00 63 1015.2
20260905204933 77 298 1.7 7.0 0.00 0.00 0.00 63 1015.1
20260905204834 78 114 1.7 7.0 0.00 0.00 0.00 63 1015.1
20260905204734 77 133 1.7 7.0 0.00 0.00 0.00 63 1015.2
20260905204634 78 131 1.7 7.0 0.00 0.00 0.00 63 1015.2
20260905204533 77 123 1.7 7.0 0.00 0.00 0.00 63 1015.3
20260905204431 78 336 1.7 7.0 0.00 0.00 0.00 63 1015.2
20260905204335 78 335 2.6 7.0 0.00 0.00 0.00 63 1015.2
20260905204232 78 278 2.6 7.0 0.00 0.00 0.00 63 1015.1
20260905204133 78 215 2.6 7.0 0.00 0.00 0.00 63 1015.1
20260905204031 78 72 2.6 7.0 0.00 0.00 0.00 63 1015.1
20260905203932 78 60 2.6 7.0 0.00 0.00 0.00 63 1015.1
20260905203831 78 83 2.6 7.0 0.00 0.00 0.00 63 1015.1
20260905203733 78 22 2.6 6.1 0.00 0.00 0.00 63 1015.1
20260905203636 78 41 2.6 6.1 0.00 0.00 0.00 63 1015.1
20260905203532 78 86 2.6 6.1 0.00 0.00 0.00 63 1015.1
20260905203430 78 189 2.6 5.2 0.00 0.00 0.00 63 1015.1
20260905203332 78 245 2.6 5.2 0.00 0.00 0.00 63 1015.2
20260905203231 78 307 1.7 5.2 0.00 0.00 0.00 63 1015.2
20260905203133 78 321 1.7 5.2 0.00 0.00 0.00 63 1015.2
20260905203030 78 320 1.7 5.2 0.00 0.00 0.00 63 1015.3
20260905202932 78 20 1.7 5.2 0.00 0.00 0.00 63 1015.3
20260905202832 78 301 1.7 5.2 0.00 0.00 0.00 63 1015.3
20260905202732 78 188 1.7 5.2 0.00 0.00 0.00 63 1015.3
20260905202636 78 123 1.7 5.2 0.00 0.00 0.00 63 1015.2
20260905202532 78 133 1.7 4.3 0.00 0.00 0.00 63 1015.3
20260905202432 78 93 1.7 6.1 0.00 0.00 0.00 62 1015.3
20260905202331 78 220 1.7 6.1 0.00 0.00 0.00 62 1015.3
20260905202232 78 220 1.7 6.1 0.00 0.00 0.00 62 1015.3
20260905202132 78 268 1.7 6.1 0.00 0.00 0.00 62 1015.4
20260905202031 78 268 1.7 6.1 0.00 0.00 0.00 62 1015.3
20260905201930 78 268 1.7 6.1 0.00 0.00 0.00 62 1015.3
20260905201827 78 260 1.7 6.1 0.00 0.00 0.00 62 1015.3
20260905201730 78 54 1.7 6.1 0.00 0.00 0.00 62 1015.3
20260905201624 78 70 1.7 6.1 0.00 0.00 0.00 62 1015.3
20260905201522 78 86 1.7 6.1 0.00 0.00 0.00 61 1015.4
20260905201419 78 189 1.7 5.2 0.00 0.00 0.00 61 1015.4
20260905201319 78 189 1.7 5.2 0.00 0.00 0.00 61 1015.4
20260905201215 78 141 1.7 5.2 0.00 0.00 0.00 61 1015.4
20260905201116 78 137 1.7 5.2 0.00 0.00 0.00 61 1015.3
20260905201014 78 284 2.6 5.2 0.00 0.00 0.00 61 1015.3
20260905200913 78 282 2.6 5.2 0.00 0.00 0.00 61 1015.3
20260905200811 78 276 2.6 5.2 0.00 0.00 0.00 61 1015.3
20260905200708 78 334 1.7 5.2 0.00 0.00 0.00 61 1015.3
20260905200610 78 295 1.7 5.2 0.00 0.00 0.00 61 1015.3
20260905200508 78 14 1.7 5.2 0.00 0.00 0.00 60 1015.3
20260905200408 78 305 1.7 5.2 0.00 0.00 0.00 61 1015.3
20260905200307 78 328 1.7 6.1 0.00 0.00 0.00 61 1015.3
20260905200203 78 264 1.7 6.1 0.00 0.00 0.00 61 1015.2
20260905200004 78 266 2.6 6.1 0.00 0.00 0.00 61 1015.2
20260905195905 78 148 2.6 6.1 0.00 0.00 0.00 62 1015.2
20260905195803 78 128 2.6 6.1 0.00 0.00 0.00 62 1015.2
20260905195704 78 171 2.6 6.1 0.00 0.00 0.00 62 1015.2
20260905195602 78 149 2.6 6.1 0.00 0.00 0.00 62 1015.2
20260905195505 78 164 2.6 6.1 0.00 0.00 0.00 62 1015.1
20260905195406 78 135 2.6 6.1 0.00 0.00 0.00 62 1015.1
20260905195306 78 155 2.6 6.1 0.00 0.00 0.00 62 1015.1
20260905195204 78 154 2.6 6.1 0.00 0.00 0.00 62 1015.1
20260905195104 78 201 2.6 6.1 0.00 0.00 0.00 62 1015.1
20260905195003 78 183 2.6 6.1 0.00 0.00 0.00 62 1015.1
20260905194904 78 192 1.7 5.2 0.00 0.00 0.00 62 1015.1
20260905194801 78 165 1.7 5.2 0.00 0.00 0.00 62 1015.0
20260905194700 78 149 1.7 5.2 0.00 0.00 0.00 62 1015.1
20260905194600 78 318 2.6 5.2 0.00 0.00 0.00 62 1015.0
20260905194501 78 62 1.7 6.1 0.00 0.00 0.00 62 1015.0
20260905194400 78 121 1.7 7.0 0.00 0.00 0.00 62 1015.0
20260905194253 78 166 1.7 7.0 0.00 0.00 0.00 62 1015.0
20260905194155 78 186 2.6 7.0 0.00 0.00 0.00 62 1015.1
20260905194054 78 229 2.6 7.0 0.00 0.00 0.00 62 1015.0
20260905193954 78 145 2.6 7.0 0.00 0.00 0.00 62 1015.0
20260905193854 78 198 2.6 7.0 0.00 0.00 0.00 62 1015.0
20260905193748 78 93 2.6 7.0 0.00 0.00 0.00 62 1015.0
20260905193703 78 124 2.6 8.7 0.00 0.00 0.00 62 1015.0
20260905193547 78 82 2.6 8.7 0.00 0.00 0.00 62 1015.0
20260905193449 78 37 3.5 8.7 0.00 0.00 0.00 62 1015.0
20260905193347 78 40 3.5 8.7 0.00 0.00 0.00 63 1015.0
20260905193241 78 94 3.5 8.7 0.00 0.00 0.00 63 1015.1
20260905193146 78 125 2.6 8.7 0.00 0.00 0.00 63 1015.1
20260905193041 78 97 2.6 8.7 0.00 0.00 0.00 63 1015.1
20260905192942 78 112 2.6 10.4 0.00 0.00 0.00 63 1015.1
20260905192842 78 72 2.6 10.4 0.00 0.00 0.00 63 1015.2
20260905192739 78 66 2.6 10.4 0.00 0.00 0.00 63 1015.2
20260905192643 78 113 2.6 10.4 0.00 0.00 0.00 63 1015.2
20260905192541 78 28 2.6 10.4 0.00 0.00 0.00 63 1015.2
20260905192439 78 91 1.7 10.4 0.00 0.00 0.00 63 1015.1
20260905192336 78 122 1.7 10.4 0.00 0.00 0.00 63 1015.2
20260905192246 78 155 1.7 10.4 0.00 0.00 0.00 63 1015.3
20260905192145 78 66 1.7 10.4 0.00 0.00 0.00 63 1015.2
20260905192031 78 113 1.7 10.4 0.00 0.00 0.00 63 1015.2
20260905191933 78 231 1.7 7.8 0.00 0.00 0.00 63 1015.3
20260905191831 78 93 1.7 7.8 0.00 0.00 0.00 63 1015.3
20260905191731 78 237 1.7 7.8 0.00 0.00 0.00 63 1015.3
20260905191636 78 237 2.6 7.8 0.00 0.00 0.00 63 1015.2
20260905191531 78 237 2.6 7.8 0.00 0.00 0.00 63 1015.3
20260905191434 78 239 2.6 7.8 0.00 0.00 0.00 63 1015.3
20260905191332 78 80 2.6 7.8 0.00 0.00 0.00 63 1015.3
20260905191232 78 96 2.6 7.8 0.00 0.00 0.00 63 1015.3
20260905191137 78 93 2.6 7.8 0.00 0.00 0.00 63 1015.4
20260905191031 78 132 2.6 7.0 0.00 0.00 0.00 63 1015.3
20260905190930 78 128 2.6 7.0 0.00 0.00 0.00 63 1015.3
20260905190832 78 219 2.6 7.0 0.00 0.00 0.00 63 1015.3
20260905190732 78 252 2.6 7.0 0.00 0.00 0.00 63 1015.3
20260905190638 78 335 2.6 7.0 0.00 0.00 0.00 63 1015.3
20260905190523 78 145 2.6 7.0 0.00 0.00 0.00 63 1015.4
20260905190423 78 124 2.6 7.0 0.00 0.00 0.00 63 1015.2
20260905190325 78 155 2.6 7.0 0.00 0.00 0.00 63 1015.2
20260905190222 78 114 2.6 7.0 0.00 0.00 0.00 63 1015.3
20260905190129 78 68 2.6 7.0 0.00 0.00 0.00 63 1015.3
20260905190031 78 356 2.6 7.0 0.00 0.00 0.00 63 1015.3
20260905185918 78 185 2.6 7.0 0.00 0.00 0.00 63 1015.3
20260905185817 78 133 2.6 7.0 0.00 0.00 0.00 63 1015.3
20260905185717 78 106 2.6 7.0 0.00 0.00 0.00 63 1015.3
20260905185623 78 85 2.6 7.0 0.00 0.00 0.00 63 1015.3
20260905185516 78 95 2.6 7.0 0.00 0.00 0.00 62 1015.3
20260905185411 78 139 2.6 7.0 0.00 0.00 0.00 62 1015.2
20260905185313 78 159 1.7 7.0 0.00 0.00 0.00 62 1015.3
20260905185211 78 101 1.7 6.1 0.00 0.00 0.00 62 1015.3
20260905185117 78 139 2.6 6.1 0.00 0.00 0.00 62 1015.4
20260905185012 78 101 2.6 6.1 0.00 0.00 0.00 62 1015.3
20260905184912 78 156 2.6 6.1 0.00 0.00 0.00 62 1015.3
20260905184810 78 260 2.6 6.1 0.00 0.00 0.00 62 1015.4
20260905184711 78 243 3.5 11.3 0.00 0.00 0.00 62 1015.3
20260905184610 78 247 3.5 11.3 0.00 0.00 0.00 62 1015.3
20260905184515 78 174 3.5 11.3 0.00 0.00 0.00 62 1015.4
20260905184410 78 170 3.5 11.3 0.00 0.00 0.00 62 1015.3
20260905184308 78 293 3.5 11.3 0.00 0.00 0.00 62 1015.4
20260905184210 78 292 3.5 11.3 0.00 0.00 0.00 62 1015.4
20260905184106 78 295 3.5 11.3 0.00 0.00 0.00 62 1015.3
20260905184008 78 5 3.5 11.3 0.00 0.00 0.00 62 1015.4
20260905183903 78 10 3.5 11.3 0.00 0.00 0.00 62 1015.3
20260905183803 78 74 3.5 11.3 0.00 0.00 0.00 62 1015.3
20260905183706 78 292 3.5 9.6 0.00 0.00 0.00 62 1015.3
20260905183604 78 307 3.5 7.8 0.00 0.00 0.00 62 1015.4
20260905183504 78 305 3.5 7.8 0.00 0.00 0.00 62 1015.4
20260905183404 78 344 3.5 10.4 0.00 0.00 0.00 62 1015.3
20260905183304 78 259 3.5 10.4 0.00 0.00 0.00 62 1015.3
20260905183205 78 272 3.5 10.4 0.00 0.00 0.00 62 1015.3
20260905183106 78 208 2.6 10.4 0.00 0.00 0.00 62 1015.3
20260905183004 78 192 2.6 10.4 0.00 0.00 0.00 62 1015.3
20260905182903 78 5 2.6 10.4 0.00 0.00 0.00 62 1015.4
20260905182804 78 338 2.6 10.4 0.00 0.00 0.00 62 1015.3
20260905182702 78 276 2.6 10.4 0.00 0.00 0.00 63 1015.2
20260905182612 78 234 3.5 10.4 0.00 0.00 0.00 62 1015.3
20260905182502 78 297 2.6 12.2 0.00 0.00 0.00 62 1015.3
20260905182402 78 355 2.6 12.2 0.00 0.00 0.00 62 1015.2
20260905182306 78 270 2.6 12.2 0.00 0.00 0.00 62 1015.3
20260905182204 78 243 3.5 12.2 0.00 0.00 0.00 62 1015.3
20260905182104 78 79 3.5 13.0 0.00 0.00 0.00 63 1015.2
20260905182004 78 141 4.3 13.0 0.00 0.00 0.00 63 1015.2
20260905181903 78 191 4.3 13.0 0.00 0.00 0.00 63 1015.3
20260905181817 78 246 4.3 13.0 0.00 0.00 0.00 62 1015.3
20260905181703 78 243 4.3 13.0 0.00 0.00 0.00 62 1015.3
20260905181602 78 185 4.3 13.0 0.00 0.00 0.00 62 1015.2
20260905181503 78 259 4.3 13.0 0.00 0.00 0.00 62 1015.2
20260905181402 78 279 4.3 13.0 0.00 0.00 0.00 62 1015.2
20260905181304 78 28 4.3 13.0 0.00 0.00 0.00 62 1015.2
20260905181204 78 320 4.3 13.0 0.00 0.00 0.00 63 1015.3
20260905181102 78 0 4.3 11.3 0.00 0.00 0.00 63 1015.1
20260905181006 78 315 3.5 11.3 0.00 0.00 0.00 62 1015.2
20260905180917 78 266 3.5 10.4 0.00 0.00 0.00 62 1015.2
20260905180804 78 214 3.5 10.4 0.00 0.00 0.00 62 1015.3
20260905180703 78 191 3.5 10.4 0.00 0.00 0.00 62 1015.2
20260905180602 78 270 3.5 10.4 0.00 0.00 0.00 62 1015.2
20260905180502 78 211 3.5 8.7 0.00 0.00 0.00 62 1015.2
20260905180403 78 166 3.5 10.4 0.00 0.00 0.00 62 1015.3
20260905180302 78 242 3.5 10.4 0.00 0.00 0.00 62 1015.2
20260905180202 78 301 3.5 10.4 0.00 0.00 0.00 62 1015.2
20260905180104 78 303 3.5 11.3 0.00 0.00 0.00 62 1015.2
20260905180017 78 227 4.3 11.3 0.00 0.00 0.00 62 1015.2
20260905175902 78 129 4.3 12.2 0.00 0.00 0.00 62 1015.1
20260905175804 78 207 4.3 12.2 0.00 0.00 0.00 62 1015.1
20260905175704 78 276 4.3 12.2 0.00 0.00 0.00 61 1015.1
20260905175603 78 241 4.3 12.2 0.00 0.00 0.00 61 1015.2
20260905175504 78 349 4.3 12.2 0.00 0.00 0.00 61 1015.2
20260905175405 78 5 4.3 12.2 0.00 0.00 0.00 61 1015.2
20260905175306 78 182 4.3 12.2 0.00 0.00 0.00 61 1015.2
20260905175204 78 243 4.3 12.2 0.00 0.00 0.00 61 1015.2
20260905175104 78 312 4.3 12.2 0.00 0.00 0.00 61 1015.1
20260905175003 78 317 4.3 12.2 0.00 0.00 0.00 61 1015.1
20260905174903 78 203 4.3 14.8 0.00 0.00 0.00 61 1015.1
20260905174803 78 235 5.2 14.8 0.00 0.00 0.00 61 1015.1
20260905174703 78 347 5.2 14.8 0.00 0.00 0.00 61 1015.2
20260905174604 78 295 5.2 14.8 0.00 0.00 0.00 61 1015.3
20260905174502 78 325 5.2 14.8 0.00 0.00 0.00 61 1015.1
20260905174420 79 234 6.1 14.8 0.00 0.00 0.00 61 1015.2
20260905174303 79 334 6.1 14.8 0.00 0.00 0.00 60 1015.2
20260905174203 79 240 6.1 14.8 0.00 0.00 0.00 60 1015.1
20260905174102 79 207 7.0 14.8 0.00 0.00 0.00 60 1015.2
20260905174003 79 321 7.0 14.8 0.00 0.00 0.00 60 1015.2
20260905173902 79 260 7.0 15.6 0.00 0.00 0.00 59 1015.2
20260905173804 79 301 7.0 15.6 0.00 0.00 0.00 59 1015.1
20260905173702 79 315 7.0 15.6 0.00 0.00 0.00 59 1015.2
20260905173602 79 76 7.0 15.6 0.00 0.00 0.00 60 1015.2
20260905173504 79 328 7.0 15.6 0.00 0.00 0.00 60 1015.1
20260905173402 79 311 7.0 15.6 0.00 0.00 0.00 60 1015.1
20260905173303 79 10 6.1 15.6 0.00 0.00 0.00 59 1015.1
20260905173203 79 280 6.1 15.6 0.00 0.00 0.00 59 1015.1
20260905173102 79 310 6.1 15.6 0.00 0.00 0.00 59 1015.0
20260905173003 79 264 5.2 15.6 0.00 0.00 0.00 59 1015.0
20260905172904 78 259 5.2 13.0 0.00 0.00 0.00 59 1015.1
20260905172803 78 340 5.2 13.0 0.00 0.00 0.00 59 1015.0
20260905172705 78 294 4.3 13.0 0.00 0.00 0.00 60 1015.0
20260905172603 78 327 4.3 13.0 0.00 0.00 0.00 60 1015.0
20260905172502 78 309 3.5 13.0 0.00 0.00 0.00 60 1015.0
20260905172403 78 293 3.5 11.3 0.00 0.00 0.00 61 1015.0
20260905172305 78 181 3.5 10.4 0.00 0.00 0.00 61 1015.0
20260905172202 78 252 3.5 10.4 0.00 0.00 0.00 61 1014.9
20260905172104 78 272 3.5 10.4 0.00 0.00 0.00 62 1015.0
20260905172002 78 301 2.6 8.7 0.00 0.00 0.00 62 1014.9
20260905171902 78 253 3.5 7.8 0.00 0.00 0.00 63 1014.9
20260905171805 78 226 3.5 12.2 0.00 0.00 0.00 63 1014.9
20260905171703 78 114 3.5 13.0 0.00 0.00 0.00 63 1015.0
20260905171601 78 266 3.5 13.0 0.00 0.00 0.00 63 1015.0
20260905171503 78 268 3.5 13.0 0.00 0.00 0.00 63 1015.0
20260905171404 78 309 4.3 13.0 0.00 0.00 0.00 63 1015.0
20260905171304 78 220 4.3 13.0 0.00 0.00 0.00 63 1015.1
20260905171203 78 231 4.3 13.0 0.00 0.00 0.00 63 1015.1
20260905171103 78 230 4.3 13.0 0.00 0.00 0.00 63 1015.0
20260905171003 78 241 4.3 13.0 0.00 0.00 0.00 63 1015.2
20260905170903 78 320 4.3 13.0 0.00 0.00 0.00 62 1015.0
20260905170805 78 276 4.3 13.0 0.00 0.00 0.00 62 1015.1
20260905170703 78 290 4.3 11.3 0.00 0.00 0.00 62 1015.1
20260905170603 78 205 4.3 11.3 0.00 0.00 0.00 63 1015.1
20260905170504 78 66 3.5 11.3 0.00 0.00 0.00 63 1015.1
20260905170404 78 256 3.5 11.3 0.00 0.00 0.00 63 1015.1
20260905170302 78 272 4.3 11.3 0.00 0.00 0.00 63 1015.0
20260905170203 78 301 4.3 12.2 0.00 0.00 0.00 63 1015.0
20260905170006 78 234 4.3 12.2 0.00 0.00 0.00 63 1015.0
20260905165903 78 302 4.3 12.2 0.00 0.00 0.00 63 1014.9
20260905165803 78 50 3.5 12.2 0.00 0.00 0.00 63 1014.9
20260905165704 78 306 4.3 12.2 0.00 0.00 0.00 63 1015.0
20260905165604 78 311 4.3 12.2 0.00 0.00 0.00 63 1014.9
20260905165502 78 186 4.3 12.2 0.00 0.00 0.00 63 1014.9
20260905165403 78 54 4.3 12.2 0.00 0.00 0.00 63 1014.9
20260905165306 78 51 3.5 12.2 0.00 0.00 0.00 63 1014.9
20260905165205 79 180 3.5 12.2 0.00 0.00 0.00 63 1014.9
20260905165103 79 110 3.5 12.2 0.00 0.00 0.00 63 1014.9
20260905165003 79 32 3.5 12.2 0.00 0.00 0.00 63 1014.8
20260905164903 79 124 3.5 12.2 0.00 0.00 0.00 63 1014.8
20260905164803 79 233 3.5 12.2 0.00 0.00 0.00 63 1014.8
20260905164703 79 237 3.5 10.4 0.00 0.00 0.00 62 1014.8
20260905164603 79 278 3.5 10.4 0.00 0.00 0.00 62 1014.8
20260905164502 79 14 3.5 10.4 0.00 0.00 0.00 62 1014.9
20260905164402 79 215 3.5 10.4 0.00 0.00 0.00 62 1014.8
20260905164305 79 332 3.5 10.4 0.00 0.00 0.00 62 1014.9
20260905164203 79 272 3.5 10.4 0.00 0.00 0.00 63 1014.8
20260905164102 79 307 3.5 10.4 0.00 0.00 0.00 63 1014.8
20260905164002 79 331 3.5 13.9 0.00 0.00 0.00 63 1014.9
20260905163902 79 249 4.3 13.9 0.00 0.00 0.00 63 1014.8
20260905163803 79 214 4.3 13.9 0.00 0.00 0.00 63 1014.8
20260905163702 79 139 5.2 13.9 0.00 0.00 0.00 63 1014.8
20260905163602 79 233 5.2 15.6 0.00 0.00 0.00 63 1014.9
20260905163508 79 180 5.2 15.6 0.00 0.00 0.00 63 1014.8
20260905163405 79 270 5.2 15.6 0.00 0.00 0.00 64 1014.9
20260905163304 79 269 5.2 15.6 0.00 0.00 0.00 63 1014.9
20260905163204 79 341 6.1 15.6 0.00 0.00 0.00 63 1014.8
20260905163104 79 54 5.2 15.6 0.00 0.00 0.00 63 1014.9
20260905163006 79 258 5.2 15.6 0.00 0.00 0.00 64 1014.9
20260905162853 79 284 5.2 15.6 0.00 0.00 0.00 63 1015.0
20260905162753 79 238 5.2 15.6 0.00 0.00 0.00 63 1015.0
20260905162654 79 49 4.3 15.6 0.00 0.00 0.00 64 1014.9
20260905162555 79 278 4.3 12.2 0.00 0.00 0.00 64 1015.0
20260905162459 79 266 4.3 12.2 0.00 0.00 0.00 64 1015.0
20260905162351 79 296 4.3 12.2 0.00 0.00 0.00 64 1014.9
20260905162249 79 343 4.3 12.2 0.00 0.00 0.00 64 1015.0
20260905162152 79 228 4.3 9.6 0.00 0.00 0.00 64 1015.0
20260905162050 80 320 3.5 9.6 0.00 0.00 0.00 65 1014.9
20260905161949 80 312 3.5 9.6 0.00 0.00 0.00 65 1015.0
20260905161844 80 268 3.5 9.6 0.00 0.00 0.00 65 1015.0
20260905161742 80 254 3.5 9.6 0.00 0.00 0.00 65 1014.9
20260905161643 80 330 3.5 9.6 0.00 0.00 0.00 65 1015.0
20260905161542 80 301 3.5 9.6 0.00 0.00 0.00 65 1015.0
20260905161442 80 5 3.5 9.6 0.00 0.00 0.00 64 1015.0
20260905161337 80 322 3.5 9.6 0.00 0.00 0.00 64 1015.1
20260905161235 80 274 3.5 7.8 0.00 0.00 0.00 65 1014.9
20260905161136 80 199 3.5 8.7 0.00 0.00 0.00 65 1015.1
20260905161036 80 222 4.3 12.2 0.00 0.00 0.00 65 1015.0
20260905160936 80 276 4.3 12.2 0.00 0.00 0.00 65 1015.0
20260905160837 80 40 5.2 12.2 0.00 0.00 0.00 65 1015.0
20260905160735 80 352 5.2 13.0 0.00 0.00 0.00 65 1015.0
20260905160633 80 349 5.2 13.0 0.00 0.00 0.00 65 1015.0
20260905160532 80 314 5.2 13.0 0.00 0.00 0.00 65 1015.1
20260905160431 80 282 5.2 13.0 0.00 0.00 0.00 65 1015.0
20260905160332 80 303 5.2 13.0 0.00 0.00 0.00 65 1015.0
20260905160231 80 266 6.1 13.0 0.00 0.00 0.00 65 1015.0
20260905160131 80 256 5.2 13.0 0.00 0.00 0.00 65 1015.0
20260905160032 80 277 5.2 13.0 0.00 0.00 0.00 65 1015.0
20260905155931 80 272 5.2 13.0 0.00 0.00 0.00 65 1015.1
20260905155832 80 326 5.2 13.0 0.00 0.00 0.00 65 1015.0
20260905155732 80 282 5.2 13.0 0.00 0.00 0.00 65 1015.0
20260905155631 80 224 5.2 13.0 0.00 0.00 0.00 65 1015.1
20260905155532 80 272 5.2 13.0 0.00 0.00 0.00 65 1015.1
20260905155431 80 304 5.2 13.0 0.00 0.00 0.00 65 1014.9
20260905155331 80 260 5.2 13.0 0.00 0.00 0.00 65 1015.1
20260905155232 80 262 4.3 13.0 0.00 0.00 0.00 65 1014.9
20260905155132 80 315 5.2 13.0 0.00 0.00 0.00 65 1015.0
20260905155029 80 285 5.2 13.0 0.00 0.00 0.00 65 1015.0
20260905154933 80 223 5.2 13.0 0.00 0.00 0.00 65 1014.9
20260905154830 80 124 5.2 13.0 0.00 0.00 0.00 65 1015.0
20260905154730 80 298 5.2 13.0 0.00 0.00 0.00 65 1014.9
20260905154631 80 261 5.2 14.8 0.00 0.00 0.00 65 1014.9
20260905154529 80 243 5.2 14.8 0.00 0.00 0.00 64 1014.9
20260905154429 80 303 5.2 14.8 0.00 0.00 0.00 64 1014.9
20260905154331 80 272 5.2 14.8 0.00 0.00 0.00 64 1014.9
20260905154230 80 347 5.2 14.8 0.00 0.00 0.00 64 1014.9
20260905154132 80 310 5.2 14.8 0.00 0.00 0.00 64 1014.9
20260905154029 80 336 5.2 14.8 0.00 0.00 0.00 64 1014.9
20260905153943 80 5 5.2 14.8 0.00 0.00 0.00 64 1014.8
20260905153829 80 265 5.2 14.8 0.00 0.00 0.00 63 1014.9
20260905153730 81 269 5.2 14.8 0.00 0.00 0.00 63 1015.0
20260905153631 81 322 5.2 13.9 0.00 0.00 0.00 63 1014.8
20260905153529 81 199 5.2 13.9 0.00 0.00 0.00 63 1014.8
20260905153431 81 252 5.2 13.9 0.00 0.00 0.00 63 1014.8
20260905153330 81 306 5.2 13.9 0.00 0.00 0.00 63 1014.8
20260905153233 81 280 5.2 13.9 0.00 0.00 0.00 63 1014.8
20260905153133 80 205 5.2 16.5 0.00 0.00 0.00 63 1014.8
20260905153030 80 316 5.2 16.5 0.00 0.00 0.00 63 1014.8
20260905152924 80 288 5.2 16.5 0.00 0.00 0.00 63 1014.7
20260905152824 81 249 5.2 16.5 0.00 0.00 0.00 63 1014.8
20260905152723 81 252 5.2 16.5 0.00 0.00 0.00 63 1014.8
20260905152623 81 324 5.2 16.5 0.00 0.00 0.00 63 1014.7
20260905152525 81 207 5.2 16.5 0.00 0.00 0.00 63 1014.6
20260905152418 81 168 6.1 20.9 0.00 0.00 0.00 63 1014.8
20260905152317 81 296 6.1 20.9 0.00 0.00 0.00 63 1014.7
20260905152218 81 257 6.1 20.9 0.00 0.00 0.00 62 1014.7
20260905152118 81 267 5.2 20.9 0.00 0.00 0.00 62 1014.8
20260905152021 81 61 6.1 20.9 0.00 0.00 0.00 62 1014.7
20260905151911 81 310 6.1 20.9 0.00 0.00 0.00 62 1014.7
20260905151813 81 347 6.1 20.9 0.00 0.00 0.00 62 1014.8
20260905151712 81 131 6.1 20.9 0.00 0.00 0.00 62 1014.7
20260905151613 81 242 7.0 20.9 0.00 0.00 0.00 62 1014.7
20260905151513 81 305 6.1 18.2 0.00 0.00 0.00 62 1014.6
20260905151405 81 46 5.2 18.2 0.00 0.00 0.00 62 1014.6
20260905151306 80 313 5.2 18.2 0.00 0.00 0.00 62 1014.6
20260905151203 81 284 5.2 18.2 0.00 0.00 0.00 61 1014.6
20260905151103 81 296 5.2 18.2 0.00 0.00 0.00 62 1014.6
20260905151004 81 273 5.2 18.2 0.00 0.00 0.00 61 1014.5
20260905150903 81 319 5.2 18.2 0.00 0.00 0.00 61 1014.5
20260905150803 81 291 4.3 18.2 0.00 0.00 0.00 61 1014.5
20260905150704 81 329 4.3 14.8 0.00 0.00 0.00 61 1014.5
20260905150602 81 212 4.3 14.8 0.00 0.00 0.00 61 1014.5
20260905150502 81 211 5.2 14.8 0.00 0.00 0.00 61 1014.5
20260905150403 81 343 5.2 14.8 0.00 0.00 0.00 61 1014.5
20260905150305 81 336 5.2 14.8 0.00 0.00 0.00 61 1014.5
20260905150204 81 43 5.2 14.8 0.00 0.00 0.00 61 1014.5
20260905150103 81 128 5.2 14.8 0.00 0.00 0.00 61 1014.4
20260905150004 81 191 6.1 14.8 0.00 0.00 0.00 61 1014.5
20260905145906 81 262 5.2 14.8 0.00 0.00 0.00 61 1014.6
20260905145803 81 323 6.1 14.8 0.00 0.00 0.00 61 1014.6
20260905145703 81 312 5.2 14.8 0.00 0.00 0.00 61 1014.6
20260905145602 81 301 5.2 13.0 0.00 0.00 0.00 62 1014.6
20260905145503 81 274 6.1 13.0 0.00 0.00 0.00 61 1014.5
20260905145403 81 145 6.1 13.0 0.00 0.00 0.00 62 1014.5
20260905145306 81 228 6.1 13.0 0.00 0.00 0.00 62 1014.6
20260905145203 81 251 6.1 13.0 0.00 0.00 0.00 62 1014.6
20260905145102 81 256 6.1 13.0 0.00 0.00 0.00 62 1014.6
20260905145006 81 255 5.2 13.0 0.00 0.00 0.00 62 1014.6
20260905144903 81 291 6.1 13.0 0.00 0.00 0.00 62 1014.6
20260905144802 81 272 6.1 13.0 0.00 0.00 0.00 62 1014.6
20260905144703 81 138 6.1 13.0 0.00 0.00 0.00 62 1014.6
20260905144602 81 207 6.1 17.4 0.00 0.00 0.00 62 1014.6
20260905144504 82 274 7.0 17.4 0.00 0.00 0.00 62 1014.6
20260905144402 82 205 7.0 17.4 0.00 0.00 0.00 62 1014.7
20260905144303 82 338 7.0 17.4 0.00 0.00 0.00 62 1014.7
20260905144202 82 348 7.0 17.4 0.00 0.00 0.00 62 1014.6
20260905144104 82 303 7.0 17.4 0.00 0.00 0.00 62 1014.6
20260905144002 81 316 7.8 17.4 0.00 0.00 0.00 62 1014.7
20260905143902 81 249 7.8 17.4 0.00 0.00 0.00 62 1014.7
20260905143803 81 283 7.8 17.4 0.00 0.00 0.00 62 1014.7
20260905143704 81 351 7.0 17.4 0.00 0.00 0.00 62 1014.6
20260905143604 81 265 7.0 15.6 0.00 0.00 0.00 62 1014.6
20260905143502 81 312 7.0 15.6 0.00 0.00 0.00 62 1014.7
20260905143402 82 308 7.0 15.6 0.00 0.00 0.00 62 1014.5
20260905143304 82 222 7.0 15.6 0.00 0.00 0.00 61 1014.6
20260905143202 82 294 7.0 15.6 0.00 0.00 0.00 61 1014.7
20260905143103 82 302 7.0 15.6 0.00 0.00 0.00 61 1014.7
20260905143002 82 328 7.0 15.6 0.00 0.00 0.00 61 1014.6
20260905142903 82 255 7.8 15.6 0.00 0.00 0.00 61 1014.6
20260905142803 82 355 7.8 15.6 0.00 0.00 0.00 61 1014.6
20260905142705 82 264 7.8 15.6 0.00 0.00 0.00 61 1014.6
20260905142602 82 266 7.8 15.6 0.00 0.00 0.00 61 1014.7
20260905142506 82 296 7.8 15.6 0.00 0.00 0.00 61 1014.6
20260905142403 81 299 7.8 15.6 0.00 0.00 0.00 61 1014.7
20260905142306 82 282 7.8 15.6 0.00 0.00 0.00 61 1014.7
20260905142203 82 5 7.8 15.6 0.00 0.00 0.00 61 1014.7
20260905142103 82 303 7.8 15.6 0.00 0.00 0.00 62 1014.6
20260905142002 82 310 7.0 15.6 0.00 0.00 0.00 61 1014.6
20260905141909 82 262 7.8 15.6 0.00 0.00 0.00 62 1014.6
20260905141804 82 271 7.8 20.0 0.00 0.00 0.00 62 1014.7
20260905141707 82 164 7.8 20.0 0.00 0.00 0.00 62 1014.7
20260905141603 82 286 8.7 20.0 0.00 0.00 0.00 62 1014.7
20260905141504 82 107 8.7 20.0 0.00 0.00 0.00 63 1014.6
20260905141407 82 279 8.7 20.0 0.00 0.00 0.00 63 1014.8
20260905141302 82 313 8.7 20.0 0.00 0.00 0.00 63 1014.8
20260905141202 82 273 8.7 20.0 0.00 0.00 0.00 62 1014.9
20260905141103 82 320 8.7 20.0 0.00 0.00 0.00 63 1014.8
20260905141003 82 265 8.7 20.0 0.00 0.00 0.00 63 1014.8
20260905140903 82 337 8.7 20.0 0.00 0.00 0.00 63 1014.8
20260905140804 82 300 8.7 15.6 0.00 0.00 0.00 63 1014.7
20260905140704 82 317 8.7 15.6 0.00 0.00 0.00 63 1014.8
20260905140602 81 330 8.7 17.4 0.00 0.00 0.00 63 1014.8
20260905140504 81 279 7.8 17.4 0.00 0.00 0.00 63 1014.8
20260905140402 81 334 7.8 17.4 0.00 0.00 0.00 63 1014.9
20260905140304 81 321 7.8 17.4 0.00 0.00 0.00 63 1014.8
20260905140202 82 273 8.7 17.4 0.00 0.00 0.00 63 1014.9
20260905140104 82 298 8.7 17.4 0.00 0.00 0.00 63 1014.8
20260905140007 82 331 8.7 17.4 0.00 0.00 0.00 63 1014.7
20260905135903 82 328 8.7 17.4 0.00 0.00 0.00 63 1014.8
20260905135802 82 326 8.7 17.4 0.00 0.00 0.00 63 1014.8
20260905135702 82 315 8.7 17.4 0.00 0.00 0.00 63 1014.9
20260905135602 82 311 8.7 17.4 0.00 0.00 0.00 63 1014.7
20260905135503 82 332 8.7 17.4 0.00 0.00 0.00 63 1014.6
20260905135403 82 297 8.7 17.4 0.00 0.00 0.00 63 1014.7
20260905135306 82 330 8.7 17.4 0.00 0.00 0.00 62 1014.7
20260905135203 82 286 7.8 17.4 0.00 0.00 0.00 62 1014.7
20260905135104 82 320 7.8 17.4 0.00 0.00 0.00 62 1014.6
20260905135002 82 287 7.8 17.4 0.00 0.00 0.00 62 1014.6
20260905134903 82 321 7.8 17.4 0.00 0.00 0.00 62 1014.5
20260905134802 82 321 7.8 17.4 0.00 0.00 0.00 62 1014.5
20260905134702 82 71 7.8 17.4 0.00 0.00 0.00 63 1014.5
20260905134603 82 287 7.8 17.4 0.00 0.00 0.00 62 1014.4
20260905134504 82 280 8.7 17.4 0.00 0.00 0.00 63 1014.6
20260905134402 82 304 8.7 17.4 0.00 0.00 0.00 64 1014.5
20260905134304 82 324 8.7 17.4 0.00 0.00 0.00 63 1014.4
20260905134203 82 316 8.7 17.4 0.00 0.00 0.00 63 1014.6
20260905134103 82 345 8.7 17.4 0.00 0.00 0.00 63 1014.5
20260905134002 82 328 8.7 15.6 0.00 0.00 0.00 63 1014.5
20260905133902 82 307 8.7 16.5 0.00 0.00 0.00 63 1014.7
20260905133804 82 0 8.7 16.5 0.00 0.00 0.00 63 1014.6
20260905133703 82 5 8.7 17.4 0.00 0.00 0.00 63 1014.6
20260905133602 82 279 7.8 17.4 0.00 0.00 0.00 63 1014.6
20260905133502 82 311 7.8 17.4 0.00 0.00 0.00 64 1014.7
20260905133404 82 273 7.8 17.4 0.00 0.00 0.00 64 1014.6
20260905133303 82 301 7.8 17.4 0.00 0.00 0.00 64 1014.5
20260905133203 82 300 7.8 17.4 0.00 0.00 0.00 64 1014.4
20260905133103 82 271 7.0 17.4 0.00 0.00 0.00 64 1014.6
20260905133004 82 301 7.0 17.4 0.00 0.00 0.00 64 1014.4
20260905132902 82 298 6.1 17.4 0.00 0.00 0.00 64 1014.5
20260905132803 82 285 6.1 17.4 0.00 0.00 0.00 64 1014.4
20260905132704 82 289 7.0 15.6 0.00 0.00 0.00 64 1014.5
20260905132604 82 349 6.1 14.8 0.00 0.00 0.00 64 1014.5
20260905132505 82 239 6.1 14.8 0.00 0.00 0.00 64 1014.5
20260905132404 82 241 7.0 14.8 0.00 0.00 0.00 64 1014.5
20260905132305 82 21 6.1 14.8 0.00 0.00 0.00 64 1014.5
20260905132205 82 74 7.0 14.8 0.00 0.00 0.00 65 1014.4
20260905132104 82 310 7.0 14.8 0.00 0.00 0.00 65 1014.4
20260905132002 82 139 7.8 14.8 0.00 0.00 0.00 65 1014.5
20260905131902 82 293 7.8 16.5 0.00 0.00 0.00 65 1014.5
20260905131803 82 265 7.8 16.5 0.00 0.00 0.00 65 1014.4
20260905131703 82 303 7.8 16.5 0.00 0.00 0.00 64 1014.5
20260905131605 82 253 7.0 16.5 0.00 0.00 0.00 65 1014.4
20260905131503 82 335 7.0 16.5 0.00 0.00 0.00 65 1014.5
20260905131404 82 282 7.0 16.5 0.00 0.00 0.00 65 1014.5
20260905131303 82 316 7.0 16.5 0.00 0.00 0.00 66 1014.4
20260905131203 81 343 7.8 16.5 0.00 0.00 0.00 66 1014.4
20260905131102 81 5 7.0 22.6 0.00 0.00 0.00 67 1014.4
20260905131003 81 294 7.0 22.6 0.00 0.00 0.00 66 1014.4
20260905130903 81 268 7.0 22.6 0.00 0.00 0.00 66 1014.5
20260905130805 81 195 7.0 22.6 0.00 0.00 0.00 66 1014.4
20260905130702 81 268 7.0 22.6 0.00 0.00 0.00 66 1014.5
20260905130604 81 93 7.0 22.6 0.00 0.00 0.00 66 1014.4
20260905130502 81 306 7.0 22.6 0.00 0.00 0.00 66 1014.5
20260905130405 81 224 7.0 22.6 0.00 0.00 0.00 67 1014.4
20260905130302 81 239 7.0 22.6 0.00 0.00 0.00 67 1014.4
20260905130204 81 235 7.0 22.6 0.00 0.00 0.00 66 1014.4
20260905130004 81 221 7.0 15.6 0.00 0.00 0.00 67 1014.4
20260905125903 81 49 7.0 15.6 0.00 0.00 0.00 66 1014.4
20260905125804 81 38 7.0 15.6 0.00 0.00 0.00 66 1014.4
20260905125702 81 234 7.0 15.6 0.00 0.00 0.00 66 1014.4
20260905125602 81 350 7.0 15.6 0.00 0.00 0.00 66 1014.4
20260905125503 81 253 7.0 15.6 0.00 0.00 0.00 66 1014.3
20260905125403 82 268 7.0 14.8 0.00 0.00 0.00 66 1014.3
20260905125306 82 269 7.0 14.8 0.00 0.00 0.00 66 1014.5
20260905125204 82 252 7.8 17.4 0.00 0.00 0.00 67 1014.5
20260905125104 82 239 7.8 17.4 0.00 0.00 0.00 67 1014.4
20260905125005 82 266 7.8 17.4 0.00 0.00 0.00 66 1014.4
20260905124902 82 322 7.8 17.4 0.00 0.00 0.00 67 1014.4
20260905124804 81 309 7.8 17.4 0.00 0.00 0.00 67 1014.5
20260905124702 81 240 7.8 19.1 0.00 0.00 0.00 67 1014.5
20260905124604 82 245 8.7 19.1 0.00 0.00 0.00 67 1014.4
20260905124504 82 299 8.7 19.1 0.00 0.00 0.00 67 1014.5
20260905124402 82 312 8.7 19.1 0.00 0.00 0.00 67 1014.5
20260905124304 82 158 7.8 19.1 0.00 0.00 0.00 66 1014.3
20260905124203 82 309 7.8 19.1 0.00 0.00 0.00 67 1014.4
20260905124104 82 307 7.0 19.1 0.00 0.00 0.00 66 1014.4
20260905124004 82 0 7.0 19.1 0.00 0.00 0.00 67 1014.4
20260905123902 82 5 6.1 19.1 0.00 0.00 0.00 67 1014.5
20260905123803 82 0 6.1 19.1 0.00 0.00 0.00 67 1014.4
20260905123704 82 197 6.1 15.6 0.00 0.00 0.00 67 1014.5
20260905123602 82 268 7.0 15.6 0.00 0.00 0.00 66 1014.4
20260905123506 82 291 7.0 15.6 0.00 0.00 0.00 66 1014.4
20260905123403 82 272 7.0 15.6 0.00 0.00 0.00 66 1014.4
20260905123302 82 309 7.0 15.6 0.00 0.00 0.00 66 1014.4
20260905123203 82 237 7.0 15.6 0.00 0.00 0.00 66 1014.5
20260905123103 82 97 7.0 16.5 0.00 0.00 0.00 66 1014.4
20260905123002 82 192 7.8 16.5 0.00 0.00 0.00 66 1014.5
20260905122903 81 268 7.8 20.0 0.00 0.00 0.00 66 1014.3
20260905122802 82 289 7.8 20.0 0.00 0.00 0.00 66 1014.5
20260905122703 82 63 7.8 20.0 0.00 0.00 0.00 65 1014.3
20260905122603 82 5 7.0 20.0 0.00 0.00 0.00 65 1014.4
20260905122502 82 225 7.0 20.0 0.00 0.00 0.00 65 1014.5
20260905122403 82 286 7.0 20.0 0.00 0.00 0.00 64 1014.4
20260905122306 82 318 6.1 20.0 0.00 0.00 0.00 65 1014.4
20260905122202 82 332 6.1 20.0 0.00 0.00 0.00 65 1014.4
20260905122102 82 318 7.0 20.0 0.00 0.00 0.00 65 1014.4
20260905122002 82 255 7.0 20.0 0.00 0.00 0.00 65 1014.3
20260905121906 82 284 7.0 16.5 0.00 0.00 0.00 65 1014.5
20260905121807 82 283 7.0 16.5 0.00 0.00 0.00 65 1014.5
20260905121703 82 322 7.0 16.5 0.00 0.00 0.00 65 1014.5
20260905121602 82 5 7.8 17.4 0.00 0.00 0.00 64 1014.4
20260905121502 82 291 7.8 17.4 0.00 0.00 0.00 64 1014.3
20260905121405 82 295 7.8 17.4 0.00 0.00 0.00 64 1014.4
20260905121306 82 317 7.8 17.4 0.00 0.00 0.00 64 1014.5
20260905121204 82 121 8.7 19.1 0.00 0.00 0.00 64 1014.3
20260905121105 82 268 7.8 19.1 0.00 0.00 0.00 64 1014.5
20260905121002 82 274 8.7 19.1 0.00 0.00 0.00 64 1014.4
20260905120904 82 237 8.7 19.1 0.00 0.00 0.00 64 1014.5
20260905120804 82 5 8.7 19.1 0.00 0.00 0.00 64 1014.6
20260905120703 82 81 9.6 19.1 0.00 0.00 0.00 64 1014.3
20260905120602 82 292 9.6 22.6 0.00 0.00 0.00 64 1014.5
20260905120504 82 307 9.6 22.6 0.00 0.00 0.00 63 1014.5
20260905120402 82 284 9.6 22.6 0.00 0.00 0.00 64 1014.5
20260905120305 82 309 8.7 22.6 0.00 0.00 0.00 63 1014.3
20260905120203 82 300 8.7 22.6 0.00 0.00 0.00 64 1014.3
20260905120004 82 311 9.6 22.6 0.00 0.00 0.00 63 1014.3
20260905115903 82 228 8.7 22.6 0.00 0.00 0.00 64 1014.5
20260905115802 81 296 9.6 22.6 0.00 0.00 0.00 64 1014.5
20260905115703 81 10 8.7 22.6 0.00 0.00 0.00 63 1014.5
20260905115602 82 311 9.6 20.0 0.00 0.00 0.00 63 1014.5
20260905115506 82 5 9.6 20.0 0.00 0.00 0.00 64 1014.4
20260905115403 82 5 9.6 19.1 0.00 0.00 0.00 64 1014.7
20260905115306 82 336 9.6 19.1 0.00 0.00 0.00 64 1014.3
20260905115204 82 277 10.4 19.1 0.00 0.00 0.00 64 1014.5
20260905115103 82 341 9.6 19.1 0.00 0.00 0.00 64 1014.5
20260905115003 82 300 9.6 19.1 0.00 0.00 0.00 64 1014.5
20260905114902 82 311 9.6 19.1 0.00 0.00 0.00 64 1014.6
20260905114804 82 335 8.7 19.1 0.00 0.00 0.00 64 1014.5
20260905114704 81 305 7.8 19.1 0.00 0.00 0.00 64 1014.5
20260905114603 82 334 7.8 19.1 0.00 0.00 0.00 64 1014.4
20260905114504 82 263 7.8 19.1 0.00 0.00 0.00 64 1014.4
20260905114403 82 353 7.8 19.1 0.00 0.00 0.00 64 1014.4
20260905114304 82 295 7.0 19.1 0.00 0.00 0.00 64 1014.4
20260905114203 82 282 6.1 16.5 0.00 0.00 0.00 63 1014.3
20260905114102 82 255 6.1 15.6 0.00 0.00 0.00 63 1014.2
20260905114003 82 307 6.1 15.6 0.00 0.00 0.00 64 1014.2
20260905113904 82 153 6.1 16.5 0.00 0.00 0.00 64 1014.1
20260905113803 81 237 5.2 16.5 0.00 0.00 0.00 64 1014.2
20260905113704 82 0 5.2 16.5 0.00 0.00 0.00 63 1014.1
20260905113604 82 301 5.2 16.5 0.00 0.00 0.00 64 1014.0
20260905113504 82 276 5.2 16.5 0.00 0.00 0.00 64 1014.0
20260905113404 82 231 5.2 16.5 0.00 0.00 0.00 64 1014.2
20260905113304 82 65 5.2 16.5 0.00 0.00 0.00 64 1014.2
20260905113203 82 24 6.1 16.5 0.00 0.00 0.00 64 1014.2
20260905113104 82 77 6.1 16.5 0.00 0.00 0.00 63 1014.1
20260905113006 82 314 6.1 16.5 0.00 0.00 0.00 64 1014.3
20260905112903 83 241 6.1 14.8 0.00 0.00 0.00 64 1014.2
20260905112803 82 345 7.0 14.8 0.00 0.00 0.00 63 1014.1
20260905112703 82 0 7.0 15.6 0.00 0.00 0.00 64 1014.2
20260905112603 82 300 7.0 17.4 0.00 0.00 0.00 64 1014.2
20260905112502 82 276 7.8 17.4 0.00 0.00 0.00 64 1014.2
20260905112402 82 278 7.8 17.4 0.00 0.00 0.00 64 1014.2
20260905112305 82 289 7.8 17.4 0.00 0.00 0.00 64 1014.2
20260905112206 82 337 7.8 22.6 0.00 0.00 0.00 64 1014.3
20260905112103 82 289 8.7 22.6 0.00 0.00 0.00 64 1014.3
20260905112002 82 282 8.7 22.6 0.00 0.00 0.00 64 1014.3
20260905111902 82 74 8.7 22.6 0.00 0.00 0.00 64 1014.3
20260905111803 82 336 8.7 22.6 0.00 0.00 0.00 64 1014.3
20260905111703 82 280 8.7 22.6 0.00 0.00 0.00 64 1014.2
20260905111603 82 289 8.7 22.6 0.00 0.00 0.00 64 1014.3
20260905111502 82 353 8.7 22.6 0.00 0.00 0.00 64 1014.2
20260905111405 82 278 8.7 22.6 0.00 0.00 0.00 63 1014.4
20260905111303 82 76 8.7 22.6 0.00 0.00 0.00 64 1014.2
20260905111203 82 269 8.7 20.9 0.00 0.00 0.00 63 1014.2
20260905111103 82 314 7.8 20.9 0.00 0.00 0.00 63 1014.2
20260905111002 82 293 8.7 17.4 0.00 0.00 0.00 63 1014.3
20260905110903 82 295 8.7 17.4 0.00 0.00 0.00 64 1014.4
20260905110803 82 270 8.7 17.4 0.00 0.00 0.00 64 1014.3
20260905110702 82 274 8.7 17.4 0.00 0.00 0.00 64 1014.3
20260905110605 82 49 8.7 17.4 0.00 0.00 0.00 63 1014.3
20260905110501 82 282 8.7 17.4 0.00 0.00 0.00 63 1014.3
20260905110403 82 298 8.7 17.4 0.00 0.00 0.00 63 1014.2
20260905110302 82 39 8.7 17.4 0.00 0.00 0.00 63 1014.2
20260905110203 82 307 9.6 18.2 0.00 0.00 0.00 64 1014.4
20260905110004 82 291 8.7 18.2 0.00 0.00 0.00 63 1014.3
20260905105902 82 307 9.6 18.2 0.00 0.00 0.00 63 1014.4
20260905105805 82 336 9.6 18.2 0.00 0.00 0.00 63 1014.3
20260905105702 82 18 8.7 18.2 0.00 0.00 0.00 63 1014.3
20260905105603 82 353 8.7 18.2 0.00 0.00 0.00 64 1014.4
20260905105502 82 334 8.7 18.2 0.00 0.00 0.00 64 1014.3
20260905105402 82 326 8.7 18.2 0.00 0.00 0.00 64 1014.4
20260905105306 82 5 8.7 18.2 0.00 0.00 0.00 64 1014.5
20260905105204 82 318 7.8 19.1 0.00 0.00 0.00 64 1014.4
20260905105103 82 263 7.8 19.1 0.00 0.00 0.00 64 1014.4
20260905105007 82 331 7.8 19.1 0.00 0.00 0.00 64 1014.4
20260905104903 82 290 7.8 19.1 0.00 0.00 0.00 64 1014.4
20260905104803 82 290 7.8 19.1 0.00 0.00 0.00 64 1014.4
20260905104703 82 322 7.8 19.1 0.00 0.00 0.00 65 1014.4
20260905104603 82 252 7.8 19.1 0.00 0.00 0.00 64 1014.4
20260905104503 82 43 8.7 19.1 0.00 0.00 0.00 64 1014.4
20260905104403 82 28 8.7 19.1 0.00 0.00 0.00 64 1014.5
20260905104302 82 265 8.7 19.1 0.00 0.00 0.00 63 1014.3
20260905104202 82 278 8.7 15.6 0.00 0.00 0.00 63 1014.6
20260905104105 82 337 9.6 15.6 0.00 0.00 0.00 64 1014.4
20260905104003 82 5 9.6 17.4 0.00 0.00 0.00 64 1014.3
20260905103902 82 44 8.7 17.4 0.00 0.00 0.00 63 1014.2
20260905103804 82 270 9.6 17.4 0.00 0.00 0.00 63 1014.3
20260905103703 82 311 9.6 18.2 0.00 0.00 0.00 63 1014.4
20260905103603 82 343 9.6 18.2 0.00 0.00 0.00 63 1014.3
20260905103503 82 338 9.6 19.1 0.00 0.00 0.00 63 1014.3
20260905103403 82 5 9.6 19.1 0.00 0.00 0.00 63 1014.2
20260905103303 82 330 9.6 19.1 0.00 0.00 0.00 63 1014.1
20260905103205 82 286 9.6 19.1 0.00 0.00 0.00 64 1014.2
20260905103104 82 292 10.4 19.1 0.00 0.00 0.00 64 1014.2
20260905103003 82 321 10.4 19.1 0.00 0.00 0.00 64 1014.3
20260905102903 81 323 10.4 20.0 0.00 0.00 0.00 65 1014.2
20260905102802 81 54 11.3 20.0 0.00 0.00 0.00 65 1014.2
20260905102709 81 301 11.3 20.0 0.00 0.00 0.00 66 1014.3
20260905102603 81 316 10.4 20.9 0.00 0.00 0.00 65 1014.2
20260905102503 81 284 10.4 20.9 0.00 0.00 0.00 65 1014.4
20260905102405 81 283 10.4 20.9 0.00 0.00 0.00 65 1014.2
20260905102306 81 248 10.4 20.9 0.00 0.00 0.00 66 1014.2
20260905102208 80 276 10.4 20.9 0.00 0.00 0.00 66 1014.3
20260905102102 80 325 10.4 20.9 0.00 0.00 0.00 66 1014.3
20260905102006 80 318 10.4 20.9 0.00 0.00 0.00 66 1014.4
20260905101903 80 293 10.4 20.9 0.00 0.00 0.00 66 1014.4
20260905101804 81 321 9.6 20.9 0.00 0.00 0.00 66 1014.4
20260905101706 81 318 9.6 20.9 0.00 0.00 0.00 66 1014.2
20260905101603 81 336 10.4 20.9 0.00 0.00 0.00 66 1014.3
20260905101506 81 280 10.4 20.9 0.00 0.00 0.00 66 1014.3
20260905101403 81 5 10.4 20.9 0.00 0.00 0.00 67 1014.3
20260905101304 80 347 10.4 20.9 0.00 0.00 0.00 67 1014.1
20260905101204 80 294 10.4 20.9 0.00 0.00 0.00 67 1014.1
20260905101100 81 268 10.4 20.9 0.00 0.00 0.00 67 1014.2
20260905101002 81 284 10.4 20.9 0.00 0.00 0.00 68 1014.2
20260905100902 81 318 10.4 20.9 0.00 0.00 0.00 67 1014.2
20260905100800 80 5 10.4 20.9 0.00 0.00 0.00 68 1014.2
20260905100703 80 352 10.4 20.9 0.00 0.00 0.00 68 1014.1
20260905100553 80 273 10.4 18.2 0.00 0.00 0.00 68 1014.3
20260905100455 80 351 10.4 22.6 0.00 0.00 0.00 68 1014.2
20260905100356 80 23 11.3 22.6 0.00 0.00 0.00 68 1014.1
20260905100257 80 316 11.3 22.6 0.00 0.00 0.00 68 1014.3
20260905100150 80 303 11.3 22.6 0.00 0.00 0.00 68 1014.1
20260905100050 80 303 11.3 22.6 0.00 0.00 0.00 68 1014.3
20260905095949 80 300 10.4 22.6 0.00 0.00 0.00 67 1014.3
20260905095849 80 278 11.3 22.6 0.00 0.00 0.00 67 1014.2
20260905095749 80 309 10.4 22.6 0.00 0.00 0.00 67 1014.2
20260905095644 80 315 10.4 22.6 0.00 0.00 0.00 67 1014.3
20260905095543 80 284 10.4 21.7 0.00 0.00 0.00 67 1014.3
20260905095445 80 54 10.4 21.7 0.00 0.00 0.00 68 1014.2
20260905095345 80 315 9.6 21.7 0.00 0.00 0.00 68 1014.2
20260905095242 80 0 9.6 21.7 0.00 0.00 0.00 67 1014.2
20260905095137 80 292 9.6 21.7 0.00 0.00 0.00 67 1014.2
20260905095037 80 316 8.7 21.7 0.00 0.00 0.00 67 1014.4
20260905094938 80 353 8.7 21.7 0.00 0.00 0.00 67 1014.3
20260905094837 81 274 8.7 19.1 0.00 0.00 0.00 67 1014.3
20260905094736 81 318 8.7 19.1 0.00 0.00 0.00 67 1014.2
20260905094637 81 314 8.7 18.2 0.00 0.00 0.00 65 1014.3
20260905094536 81 324 7.8 16.5 0.00 0.00 0.00 66 1014.4
20260905094436 81 285 8.7 16.5 0.00 0.00 0.00 66 1014.2
20260905094334 81 263 8.7 16.5 0.00 0.00 0.00 66 1014.3
20260905094235 81 262 7.8 16.5 0.00 0.00 0.00 66 1014.2
20260905094134 81 341 8.7 16.5 0.00 0.00 0.00 67 1014.1
20260905094032 81 247 8.7 16.5 0.00 0.00 0.00 67 1014.3
20260905093934 81 189 7.8 16.5 0.00 0.00 0.00 66 1014.3
20260905093835 81 345 7.8 16.5 0.00 0.00 0.00 66 1014.2
20260905093732 81 274 7.0 16.5 0.00 0.00 0.00 66 1014.5
20260905093631 81 72 7.0 15.6 0.00 0.00 0.00 67 1014.4
20260905093532 81 14 7.0 15.6 0.00 0.00 0.00 66 1014.4
20260905093433 81 316 6.1 13.9 0.00 0.00 0.00 66 1014.3
20260905093333 81 328 6.1 13.9 0.00 0.00 0.00 66 1014.5
20260905093231 81 37 7.0 17.4 0.00 0.00 0.00 66 1014.3